THY71M LTFM-FIMP

Flight info

Callsign THY71M
Flight time 8h 51m
Altitude 37000
Route RATVU UT35 AYT UM855 TOMBI DCT MAROS DCT RASDA A16 CVO A727 RASMI/N0487F390 A727 LXR P751 TOMRU DCT KSL/N0486F400 DCT ALRAP/N0489F390 UT124 GWZ/N0486F400 UM308 GETOL/N0489F390 UG300 MAV UM313 MOGDU/N0485F410 UN304 APKAK/N0487F400 UN304 DENLI/N0485F410 UN304 PONIR UA400 RASMA RASMA2E
Aircraft A359/H-SDE2E3GHIJ1J3J4J5LM1ORWXY/LB1D1

Departure

Time 2026-05-05 23:41
Airport İstanbul Airport (LTFM)

Arrival

Time 2026-05-06 08:32
Airport Sir Seewoosagur Ramgoolam International Airport (FIMP)
Time Latitude Longitude Altitude Speed Heading
2026-05-05 22:27 41.26790 28.73759 325 ft 0 kts 269°
2026-05-05 23:22 41.26790 28.73773 319 ft 3 kts 270°
2026-05-05 23:23 41.26789 28.73799 319 ft 3 kts 276°
2026-05-05 23:23 41.26787 28.73825 318 ft 3 kts 285°
2026-05-05 23:23 41.26781 28.73849 317 ft 3 kts 302°
2026-05-05 23:23 41.26772 28.73866 317 ft 3 kts 329°
2026-05-05 23:24 41.26761 28.73873 319 ft 1 kts 359°
2026-05-05 23:24 41.26760 28.73873 319 ft 0 kts 359°
2026-05-05 23:30 41.26765 28.73872 318 ft 3 kts 358°
2026-05-05 23:30 41.26803 28.73871 318 ft 7 kts 359°
2026-05-05 23:31 41.26855 28.73870 319 ft 8 kts 359°
2026-05-05 23:31 41.26916 28.73868 319 ft 10 kts 359°
2026-05-05 23:31 41.26993 28.73866 318 ft 12 kts 359°
2026-05-05 23:31 41.27039 28.73857 317 ft 6 kts 330°
2026-05-05 23:32 41.27048 28.73812 317 ft 6 kts 268°
2026-05-05 23:32 41.27047 28.73743 317 ft 9 kts 269°
2026-05-05 23:32 41.27047 28.73640 317 ft 13 kts 269°
2026-05-05 23:32 41.27045 28.73509 317 ft 15 kts 268°
2026-05-05 23:33 41.27043 28.73385 317 ft 13 kts 269°
2026-05-05 23:33 41.27042 28.73275 317 ft 12 kts 269°
2026-05-05 23:33 41.27042 28.73160 314 ft 8 kts 270°
2026-05-05 23:33 41.27019 28.73104 315 ft 6 kts 196°
2026-05-05 23:34 41.26978 28.73103 315 ft 7 kts 179°
2026-05-05 23:34 41.26924 28.73104 316 ft 9 kts 179°
2026-05-05 23:34 41.26860 28.73105 316 ft 10 kts 179°
2026-05-05 23:34 41.26785 28.73106 316 ft 11 kts 179°
2026-05-05 23:35 41.26702 28.73108 317 ft 12 kts 179°
2026-05-05 23:35 41.26614 28.73110 317 ft 13 kts 179°
2026-05-05 23:35 41.26523 28.73111 318 ft 12 kts 179°
2026-05-05 23:35 41.26443 28.73113 318 ft 12 kts 179°
2026-05-05 23:36 41.26360 28.73114 319 ft 12 kts 179°
2026-05-05 23:36 41.26280 28.73116 319 ft 11 kts 179°
2026-05-05 23:36 41.26228 28.73110 319 ft 3 kts 212°
2026-05-05 23:36 41.26221 28.73090 320 ft 3 kts 248°
2026-05-05 23:37 41.26217 28.73046 320 ft 6 kts 266°
2026-05-05 23:37 41.26216 28.72989 321 ft 6 kts 269°
2026-05-05 23:37 41.26215 28.72939 322 ft 5 kts 269°
2026-05-05 23:37 41.26215 28.72897 323 ft 5 kts 269°
2026-05-05 23:38 41.26215 28.72852 327 ft 6 kts 269°
2026-05-05 23:38 41.26214 28.72784 329 ft 10 kts 269°
2026-05-05 23:38 41.26213 28.72687 328 ft 10 kts 269°
2026-05-05 23:38 41.26212 28.72594 328 ft 7 kts 269°
2026-05-05 23:39 41.26212 28.72548 329 ft 3 kts 275°
2026-05-05 23:39 41.26222 28.72533 327 ft 2 kts 321°
2026-05-05 23:39 41.26236 28.72528 325 ft 3 kts 347°
2026-05-05 23:39 41.26288 28.72523 325 ft 14 kts 359°
2026-05-05 23:40 41.26526 28.72519 329 ft 63 kts 359°
2026-05-05 23:40 41.27169 28.72506 322 ft 120 kts 359°
2026-05-05 23:40 41.28173 28.72485 316 ft 168 kts 359°
2026-05-05 23:40 41.29429 28.72448 717 ft 178 kts 359°
2026-05-05 23:41 41.30608 28.72444 1627 ft 166 kts
2026-05-05 23:41 41.31781 28.72483 2154 ft 174 kts
2026-05-05 23:41 41.33066 28.72566 2439 ft 195 kts
2026-05-05 23:41 41.34479 28.72638 2668 ft 218 kts
2026-05-05 23:42 41.36080 28.72625 2967 ft 241 kts 355°
2026-05-05 23:42 41.37747 28.72065 3487 ft 252 kts 337°
2026-05-05 23:42 41.39180 28.70748 4340 ft 252 kts 317°
2026-05-05 23:42 41.40104 28.68768 5168 ft 256 kts 292°
2026-05-05 23:43 41.40287 28.66381 5944 ft 267 kts 266°
2026-05-05 23:43 41.39664 28.64007 6610 ft 278 kts 248°
2026-05-05 23:43 41.38825 28.61656 7229 ft 285 kts 250°
2026-05-05 23:43 41.37980 28.59229 7857 ft 292 kts 250°
2026-05-05 23:44 41.37111 28.56752 8507 ft 299 kts 250°
2026-05-05 23:44 41.36199 28.54235 9205 ft 308 kts 246°
2026-05-05 23:44 41.35009 28.51815 10055 ft 310 kts 235°
2026-05-05 23:44 41.33473 28.49789 10809 ft 317 kts 221°
2026-05-05 23:45 41.31513 28.48279 11188 ft 336 kts 201°
2026-05-05 23:45 41.29178 28.47663 11616 ft 350 kts 181°
2026-05-05 23:45 41.26713 28.48006 11966 ft 364 kts 164°
2026-05-05 23:45 41.24378 28.49298 12233 ft 376 kts 146°
2026-05-05 23:46 41.22325 28.51523 12565 ft 385 kts 128°
2026-05-05 23:46 41.20747 28.54430 12947 ft 392 kts 118°
2026-05-05 23:46 41.19305 28.57507 13707 ft 392 kts 118°
2026-05-05 23:46 41.17879 28.60605 14362 ft 395 kts 118°
2026-05-05 23:47 41.16368 28.63694 14887 ft 401 kts 120°
2026-05-05 23:47 41.14830 28.66757 15451 ft 405 kts 120°
2026-05-05 23:47 41.13246 28.69922 16026 ft 409 kts 120°
2026-05-05 23:47 41.11697 28.73033 16603 ft 412 kts 120°
2026-05-05 23:48 41.10113 28.76224 17174 ft 415 kts 120°
2026-05-05 23:48 41.08518 28.79441 17756 ft 419 kts 120°
2026-05-05 23:48 41.06917 28.82672 18316 ft 422 kts 120°
2026-05-05 23:48 41.05285 28.85934 18830 ft 426 kts 122°
2026-05-05 23:49 41.03297 28.88897 19318 ft 435 kts 137°
2026-05-05 23:49 41.00729 28.91063 19834 ft 442 kts 155°
2026-05-05 23:49 40.97755 28.92153 20341 ft 448 kts 173°
2026-05-05 23:49 40.94630 28.92062 20905 ft 451 kts 188°
2026-05-05 23:50 40.91549 28.91526 21427 ft 455 kts 187°
2026-05-05 23:50 40.88369 28.91370 21937 ft 458 kts 176°
2026-05-05 23:50 40.85220 28.92068 22462 ft 460 kts 163°
2026-05-05 23:50 40.82175 28.93386 23010 ft 463 kts 159°
2026-05-05 23:51 40.79130 28.94847 23513 ft 466 kts 159°
2026-05-05 23:51 40.76076 28.96340 23943 ft 470 kts 158°
2026-05-05 23:51 40.72994 28.97852 24370 ft 474 kts 158°
2026-05-05 23:51 40.69895 28.99374 24817 ft 477 kts 158°
2026-05-05 23:52 40.66766 29.00910 25249 ft 480 kts 158°
2026-05-05 23:52 40.63624 29.02451 25679 ft 483 kts 158°
2026-05-05 23:52 40.60467 29.03999 26114 ft 486 kts 158°
2026-05-05 23:52 40.57290 29.05555 26560 ft 489 kts 158°
2026-05-05 23:53 40.54128 29.07102 26970 ft 492 kts 158°
2026-05-05 23:53 40.50917 29.08672 27362 ft 495 kts 158°
2026-05-05 23:53 40.47666 29.10260 27787 ft 498 kts 158°
2026-05-05 23:53 40.44408 29.11849 28203 ft 501 kts 158°
2026-05-05 23:54 40.41126 29.13448 28596 ft 504 kts 158°
2026-05-05 23:54 40.37829 29.15053 28970 ft 507 kts 158°
2026-05-05 23:54 40.34505 29.16669 29346 ft 510 kts 158°
2026-05-05 23:54 40.31168 29.18290 29706 ft 513 kts 158°
2026-05-05 23:55 40.27807 29.19921 30059 ft 516 kts 158°
2026-05-05 23:55 40.24439 29.21553 30376 ft 518 kts 158°
2026-05-05 23:55 40.21047 29.23196 30639 ft 521 kts 158°
2026-05-05 23:55 40.17652 29.24838 31056 ft 519 kts 158°
2026-05-05 23:56 40.14265 29.26474 31475 ft 518 kts 159°
2026-05-05 23:56 40.10883 29.28106 31867 ft 518 kts 159°
2026-05-05 23:56 40.07493 29.29741 32254 ft 518 kts 159°
2026-05-05 23:56 40.04162 29.31345 32618 ft 517 kts 159°
2026-05-05 23:57 40.00790 29.32968 32996 ft 516 kts 159°
2026-05-05 23:57 39.97419 29.34589 33372 ft 515 kts 159°
2026-05-05 23:57 39.94056 29.36203 33722 ft 515 kts 159°
2026-05-05 23:57 39.90694 29.37815 34060 ft 514 kts 159°
2026-05-05 23:58 39.87354 29.39481 34355 ft 514 kts 157°
2026-05-05 23:58 39.84050 29.41274 34628 ft 513 kts 156°
2026-05-05 23:58 39.80817 29.43096 34891 ft 512 kts 155°
2026-05-05 23:58 39.77499 29.44979 35153 ft 512 kts 156°
2026-05-05 23:59 39.74279 29.46795 35400 ft 512 kts 156°
2026-05-05 23:59 39.71007 29.48622 35656 ft 511 kts 156°
2026-05-05 23:59 39.67729 29.50435 35903 ft 511 kts 156°
2026-05-05 23:59 39.64454 29.52233 36135 ft 511 kts 157°
2026-05-06 00:00 39.61273 29.53949 36356 ft 511 kts 158°
2026-05-06 00:00 39.57963 29.55632 36580 ft 511 kts 159°
2026-05-06 00:00 39.54741 29.57215 36787 ft 511 kts 159°
2026-05-06 00:00 39.51416 29.58833 37005 ft 510 kts 159°
2026-05-06 00:01 39.48080 29.60459 37109 ft 513 kts 159°
2026-05-06 00:01 39.44734 29.62101 37112 ft 516 kts 159°
2026-05-06 00:01 39.38023 29.65421 37108 ft 516 kts 159°
2026-05-06 00:02 39.31359 29.68730 37109 ft 516 kts 159°
2026-05-06 00:02 39.24648 29.72058 37112 ft 516 kts 159°
2026-05-06 00:03 39.17940 29.75376 37111 ft 516 kts 159°
2026-05-06 00:03 39.11229 29.78687 37112 ft 516 kts 160°
2026-05-06 00:04 39.04528 29.81986 37110 ft 516 kts 160°
2026-05-06 00:04 38.98955 29.84724 37112 ft 516 kts 160°
2026-05-06 00:05 38.87789 29.90198 37104 ft 515 kts 160°
2026-05-06 00:06 38.82220 29.92876 37100 ft 515 kts 160°
2026-05-06 00:06 38.75480 29.96055 37093 ft 515 kts 161°
2026-05-06 00:07 38.68749 29.99231 37090 ft 515 kts 160°
2026-05-06 00:07 38.62017 30.02413 37090 ft 515 kts 161°
2026-05-06 00:08 38.55288 30.05592 37085 ft 515 kts 160°
2026-05-06 00:08 38.48566 30.08763 37085 ft 515 kts 161°
2026-05-06 00:09 38.41843 30.11927 37079 ft 515 kts 161°
2026-05-06 00:09 38.35126 30.15082 37075 ft 514 kts 161°
2026-05-06 00:10 38.28412 30.18214 37074 ft 514 kts 161°
2026-05-06 00:10 38.21710 30.21283 37072 ft 514 kts 161°
2026-05-06 00:11 38.14987 30.24355 37071 ft 514 kts 161°
2026-05-06 00:11 38.08248 30.27435 37057 ft 514 kts 161°
2026-05-06 00:12 38.01550 30.30496 37053 ft 514 kts 161°
2026-05-06 00:12 37.94819 30.33566 37048 ft 515 kts 162°
2026-05-06 00:13 37.88064 30.36618 37046 ft 515 kts 162°
2026-05-06 00:13 37.81308 30.39665 37045 ft 516 kts 162°
2026-05-06 00:14 37.74538 30.42716 37049 ft 516 kts 162°
2026-05-06 00:14 37.67759 30.45769 37056 ft 517 kts 162°
2026-05-06 00:15 37.61021 30.48797 37058 ft 517 kts 162°
2026-05-06 00:15 37.54252 30.51833 37062 ft 517 kts 162°
2026-05-06 00:16 37.47467 30.54870 37061 ft 517 kts 162°
2026-05-06 00:16 37.40693 30.57896 37052 ft 516 kts 162°
2026-05-06 00:17 37.33919 30.60916 37051 ft 516 kts 162°
2026-05-06 00:17 37.27148 30.63929 37046 ft 516 kts 162°
2026-05-06 00:18 37.20368 30.66941 37034 ft 516 kts 163°
2026-05-06 00:18 37.14339 30.69615 37025 ft 516 kts 163°
2026-05-06 00:19 37.08778 30.72076 37021 ft 516 kts 163°
2026-05-06 00:19 37.01992 30.75074 37020 ft 516 kts 163°
2026-05-06 00:20 36.95207 30.78045 37016 ft 516 kts 165°
2026-05-06 00:20 36.88205 30.79572 37021 ft 509 kts 180°
2026-05-06 00:21 36.81140 30.79932 37020 ft 508 kts 182°
2026-05-06 00:21 36.74076 30.80122 37016 ft 508 kts 182°
2026-05-06 00:22 36.66997 30.80325 37011 ft 508 kts 182°
2026-05-06 00:22 36.59926 30.80557 37003 ft 508 kts 182°
2026-05-06 00:23 36.52900 30.80801 37002 ft 508 kts 182°
2026-05-06 00:23 36.45827 30.81047 37000 ft 508 kts 182°
2026-05-06 00:24 36.38752 30.81288 37000 ft 508 kts 182°
2026-05-06 00:24 36.31680 30.81524 37000 ft 508 kts 182°
2026-05-06 00:25 36.24610 30.81761 36996 ft 508 kts 182°
2026-05-06 00:25 36.17530 30.81997 36999 ft 509 kts 183°
2026-05-06 00:26 36.10453 30.82232 36998 ft 509 kts 183°
2026-05-06 00:26 36.03365 30.82468 37001 ft 509 kts 183°
2026-05-06 00:27 35.96286 30.82750 37000 ft 509 kts 182°
2026-05-06 00:27 35.89247 30.83057 37000 ft 509 kts 182°
2026-05-06 00:28 35.82161 30.83362 37004 ft 509 kts 182°
2026-05-06 00:28 35.75073 30.83660 37002 ft 509 kts 182°
2026-05-06 00:29 35.67986 30.83956 37002 ft 509 kts 183°
2026-05-06 00:29 35.60889 30.84252 37003 ft 509 kts 183°
2026-05-06 00:30 35.53805 30.84546 37006 ft 509 kts 183°
2026-05-06 00:30 35.46726 30.84841 37003 ft 509 kts 183°
2026-05-06 00:31 35.39655 30.85134 37003 ft 509 kts 183°
2026-05-06 00:31 35.32579 30.85426 37000 ft 508 kts 183°
2026-05-06 00:32 35.25517 30.85718 37011 ft 508 kts 183°
2026-05-06 00:32 35.18458 30.86009 37012 ft 507 kts 183°
2026-05-06 00:33 35.11431 30.86299 37012 ft 507 kts 183°
2026-05-06 00:33 35.04380 30.86589 37011 ft 506 kts 183°
2026-05-06 00:34 34.97335 30.86878 37007 ft 506 kts 183°
2026-05-06 00:34 34.90307 30.87166 37012 ft 505 kts 183°
2026-05-06 00:35 34.83284 30.87453 37013 ft 504 kts 184°
2026-05-06 00:35 34.76271 30.87739 37014 ft 504 kts 184°
2026-05-06 00:36 34.69266 30.88025 37014 ft 503 kts 184°
2026-05-06 00:36 34.62259 30.88310 37013 ft 503 kts 184°
2026-05-06 00:37 34.55268 30.88608 37014 ft 502 kts 184°
2026-05-06 00:37 34.48327 30.88923 37016 ft 502 kts 184°
2026-05-06 00:38 34.41344 30.89240 37013 ft 501 kts 184°
2026-05-06 00:38 34.34383 30.89551 37019 ft 500 kts 184°
2026-05-06 00:39 34.27422 30.89860 37022 ft 500 kts 184°
2026-05-06 00:39 34.20478 30.90168 37020 ft 499 kts 184°
2026-05-06 00:40 34.13542 30.90475 37021 ft 498 kts 184°
2026-05-06 00:40 34.06633 30.90780 37019 ft 498 kts 184°
2026-05-06 00:41 33.99706 30.91086 37027 ft 497 kts 184°
2026-05-06 00:41 33.92797 30.91390 37020 ft 497 kts 184°
2026-05-06 00:42 33.85876 30.91694 37024 ft 497 kts 184°
2026-05-06 00:42 33.78967 30.91998 37027 ft 497 kts 184°
2026-05-06 00:43 33.72065 30.92301 37027 ft 496 kts 184°
2026-05-06 00:43 33.65146 30.92603 37029 ft 496 kts 184°
2026-05-06 00:44 33.58291 30.92903 37028 ft 496 kts 184°
2026-05-06 00:44 33.51394 30.93204 37032 ft 496 kts 184°
2026-05-06 00:45 33.44486 30.93505 37033 ft 496 kts 184°
2026-05-06 00:45 33.37587 30.93805 37033 ft 496 kts 184°
2026-05-06 00:46 33.30692 30.94104 37035 ft 496 kts 184°
2026-05-06 00:46 33.23795 30.94403 37029 ft 496 kts 184°
2026-05-06 00:47 33.16946 30.94699 37036 ft 495 kts 184°
2026-05-06 00:47 33.10053 30.94998 37028 ft 495 kts 184°
2026-05-06 00:48 33.03144 30.95568 37043 ft 499 kts 180°
2026-05-06 00:48 32.96224 30.96447 37046 ft 499 kts 180°
2026-05-06 00:49 32.89322 30.97301 37043 ft 499 kts 180°
2026-05-06 00:49 32.82453 30.98091 37049 ft 498 kts 181°
2026-05-06 00:50 32.75555 30.98858 37048 ft 497 kts 181°
2026-05-06 00:50 32.68660 30.99622 37052 ft 497 kts 181°
2026-05-06 00:51 32.61778 31.00385 37054 ft 496 kts 181°
2026-05-06 00:51 32.54900 31.01148 37055 ft 496 kts 181°
2026-05-06 00:52 32.48026 31.01910 37058 ft 496 kts 180°
2026-05-06 00:52 32.42319 31.02541 37061 ft 495 kts 180°
2026-05-06 00:53 32.35465 31.03299 37054 ft 495 kts 180°
2026-05-06 00:53 32.27508 31.04177 37061 ft 494 kts 180°
2026-05-06 00:54 32.21768 31.04810 37057 ft 494 kts 180°
2026-05-06 00:54 32.14966 31.05558 37061 ft 493 kts 180°
2026-05-06 00:55 32.08138 31.06308 37063 ft 493 kts 180°
2026-05-06 00:55 32.01296 31.07060 37064 ft 493 kts 180°
2026-05-06 00:56 31.94468 31.07800 37072 ft 492 kts 181°
2026-05-06 00:56 31.87641 31.08528 37066 ft 492 kts 181°
2026-05-06 00:57 31.80857 31.09254 37063 ft 492 kts 181°
2026-05-06 00:57 31.74034 31.09985 37063 ft 492 kts 181°
2026-05-06 00:58 31.67210 31.10716 37065 ft 492 kts 181°
2026-05-06 00:58 31.60394 31.11446 37065 ft 492 kts 181°
2026-05-06 00:59 31.53570 31.12175 37068 ft 492 kts 181°
2026-05-06 00:59 31.46753 31.13162 37074 ft 496 kts 176°
2026-05-06 01:00 31.39940 31.14552 37061 ft 496 kts 176°
2026-05-06 01:00 31.33137 31.15930 37070 ft 495 kts 176°
2026-05-06 01:01 31.26338 31.17233 37069 ft 495 kts 176°
2026-05-06 01:01 31.19541 31.18508 37074 ft 494 kts 177°
2026-05-06 01:02 31.12756 31.19765 37070 ft 494 kts 177°
2026-05-06 01:02 31.05972 31.21021 37070 ft 493 kts 177°
2026-05-06 01:03 30.99235 31.22271 37066 ft 493 kts 177°
2026-05-06 01:03 30.92466 31.23526 37069 ft 492 kts 177°
2026-05-06 01:04 30.85703 31.24780 37068 ft 491 kts 177°
2026-05-06 01:04 30.78950 31.26029 37069 ft 491 kts 177°
2026-05-06 01:05 30.72207 31.27274 37068 ft 490 kts 177°
2026-05-06 01:05 30.65477 31.28516 37068 ft 490 kts 177°
2026-05-06 01:06 30.58380 31.29823 37080 ft 489 kts 177°
2026-05-06 01:06 30.51649 31.31061 37070 ft 489 kts 177°
2026-05-06 01:07 30.44926 31.32298 37065 ft 489 kts 177°
2026-05-06 01:07 30.38202 31.33537 37071 ft 488 kts 177°
2026-05-06 01:08 30.31485 31.34767 37070 ft 488 kts 177°
2026-05-06 01:08 30.24822 31.35987 37070 ft 488 kts 177°
2026-05-06 01:09 30.18123 31.37213 37072 ft 487 kts 177°
2026-05-06 01:09 30.11416 31.38441 37072 ft 487 kts 178°
2026-05-06 01:10 30.04775 31.40300 37073 ft 493 kts 171°
2026-05-06 01:10 29.98164 31.42474 37073 ft 494 kts 170°
2026-05-06 01:11 29.91570 31.44686 37071 ft 493 kts 170°
2026-05-06 01:11 29.85011 31.46874 37073 ft 493 kts 171°
2026-05-06 01:12 29.78416 31.49059 37073 ft 493 kts 171°
2026-05-06 01:12 29.71824 31.51237 37075 ft 492 kts 171°
2026-05-06 01:13 29.65249 31.53408 37079 ft 492 kts 171°
2026-05-06 01:13 29.58656 31.55562 37077 ft 492 kts 171°
2026-05-06 01:14 29.48782 31.58782 37080 ft 491 kts 171°
2026-05-06 01:14 29.42202 31.60929 37079 ft 492 kts 171°
2026-05-06 01:15 29.35653 31.63064 37080 ft 492 kts 171°
2026-05-06 01:15 29.29075 31.65206 37081 ft 492 kts 171°
2026-05-06 01:16 29.22485 31.67348 37082 ft 492 kts 171°
2026-05-06 01:16 29.15898 31.69484 37080 ft 492 kts 171°
2026-05-06 01:17 29.09310 31.71618 37078 ft 492 kts 171°
2026-05-06 01:17 29.02717 31.73751 37082 ft 492 kts 171°
2026-05-06 01:18 28.96119 31.75886 37077 ft 492 kts 171°
2026-05-06 01:18 28.89530 31.77988 37069 ft 492 kts 171°
2026-05-06 01:19 28.82964 31.80066 37081 ft 492 kts 171°
2026-05-06 01:19 28.76359 31.82157 37082 ft 492 kts 171°
2026-05-06 01:20 28.69761 31.84248 37080 ft 492 kts 171°
2026-05-06 01:20 28.63159 31.86339 37078 ft 492 kts 171°
2026-05-06 01:21 28.56598 31.88414 37084 ft 492 kts 171°
2026-05-06 01:21 28.49998 31.90500 37082 ft 492 kts 171°
2026-05-06 01:22 28.43412 31.92577 37083 ft 492 kts 171°
2026-05-06 01:22 28.36805 31.94658 37086 ft 492 kts 171°
2026-05-06 01:23 28.30205 31.96736 37090 ft 492 kts 171°
2026-05-06 01:23 28.23612 31.98807 37087 ft 491 kts 171°
2026-05-06 01:24 28.17068 32.00861 37089 ft 491 kts 171°
2026-05-06 01:24 28.10472 32.02928 37089 ft 491 kts 171°
2026-05-06 01:25 28.05001 32.04641 37087 ft 491 kts 171°
2026-05-06 01:25 27.98420 32.06719 37086 ft 491 kts 171°
2026-05-06 01:26 27.91845 32.08830 37092 ft 491 kts 171°
2026-05-06 01:26 27.85275 32.10938 37086 ft 490 kts 171°
2026-05-06 01:27 27.78704 32.13039 37089 ft 490 kts 171°
2026-05-06 01:27 27.72149 32.15129 37085 ft 489 kts 171°
2026-05-06 01:28 27.65602 32.17214 37087 ft 489 kts 171°
2026-05-06 01:28 27.59041 32.19300 37082 ft 489 kts 171°
2026-05-06 01:29 27.52496 32.21379 37084 ft 489 kts 171°
2026-05-06 01:29 27.45952 32.23455 37083 ft 488 kts 171°
2026-05-06 01:30 27.39411 32.25527 37077 ft 488 kts 171°
2026-05-06 01:30 27.32911 32.27584 37079 ft 488 kts 171°
2026-05-06 01:31 27.26383 32.29649 37078 ft 487 kts 171°
2026-05-06 01:31 27.19858 32.31710 37077 ft 487 kts 171°
2026-05-06 01:32 27.13334 32.33769 37075 ft 487 kts 171°
2026-05-06 01:32 27.06818 32.35822 37073 ft 486 kts 171°
2026-05-06 01:33 27.00302 32.37873 37067 ft 486 kts 171°
2026-05-06 01:33 26.93790 32.39920 37065 ft 486 kts 171°
2026-05-06 01:34 26.87280 32.41965 37058 ft 486 kts 172°
2026-05-06 01:34 26.80771 32.44006 37059 ft 485 kts 172°
2026-05-06 01:35 26.74274 32.46041 37055 ft 485 kts 172°
2026-05-06 01:35 26.67775 32.48074 37047 ft 485 kts 172°
2026-05-06 01:36 26.61279 32.50104 37041 ft 484 kts 172°
2026-05-06 01:36 26.54824 32.52119 37035 ft 484 kts 172°
2026-05-06 01:37 26.48337 32.54141 37028 ft 484 kts 172°
2026-05-06 01:37 26.41850 32.56162 37035 ft 484 kts 172°
2026-05-06 01:38 26.35357 32.58181 37023 ft 484 kts 172°
2026-05-06 01:38 26.28865 32.60197 37028 ft 484 kts 172°
2026-05-06 01:39 26.22376 32.62211 37023 ft 483 kts 172°
2026-05-06 01:39 26.15899 32.64219 37014 ft 483 kts 172°
2026-05-06 01:40 26.09426 32.66222 37014 ft 483 kts 172°
2026-05-06 01:40 26.02944 32.68227 37008 ft 482 kts 172°
2026-05-06 01:41 25.96523 32.70209 37003 ft 482 kts 172°
2026-05-06 01:41 25.90057 32.72204 37001 ft 482 kts 172°
2026-05-06 01:42 25.83594 32.74197 36995 ft 481 kts 172°
2026-05-06 01:42 25.77154 32.76257 36989 ft 485 kts 168°
2026-05-06 01:43 25.71045 32.79694 36992 ft 500 kts 156°
2026-05-06 01:43 25.65237 32.83895 36990 ft 502 kts 154°
2026-05-06 01:44 25.59438 32.88233 36992 ft 502 kts 154°
2026-05-06 01:44 25.53638 32.92543 36995 ft 501 kts 154°
2026-05-06 01:45 25.47836 32.96815 36989 ft 500 kts 155°
2026-05-06 01:45 25.42036 33.01066 37000 ft 500 kts 155°
2026-05-06 01:46 25.36243 33.05308 36993 ft 499 kts 155°
2026-05-06 01:46 25.30450 33.09547 36990 ft 499 kts 155°
2026-05-06 01:47 25.24699 33.13751 36988 ft 499 kts 155°
2026-05-06 01:47 25.18919 33.17979 36977 ft 498 kts 155°
2026-05-06 01:48 25.13143 33.22191 36981 ft 498 kts 155°
2026-05-06 01:48 25.07358 33.26403 36985 ft 498 kts 155°
2026-05-06 01:49 25.01577 33.30608 36983 ft 497 kts 155°
2026-05-06 01:49 24.96192 33.34523 36981 ft 497 kts 155°
2026-05-06 01:50 24.90412 33.38720 36978 ft 497 kts 156°
2026-05-06 01:50 24.84640 33.42907 36976 ft 497 kts 156°
2026-05-06 01:51 24.78870 33.47089 36977 ft 497 kts 156°
2026-05-06 01:51 24.73091 33.51271 36972 ft 497 kts 156°
2026-05-06 01:52 24.67319 33.55445 36971 ft 497 kts 156°
2026-05-06 01:52 24.61570 33.59597 36970 ft 497 kts 156°
2026-05-06 01:53 24.55792 33.63764 36970 ft 497 kts 156°
2026-05-06 01:53 24.50000 33.67937 36970 ft 497 kts 156°
2026-05-06 01:54 24.44216 33.72099 36965 ft 497 kts 156°
2026-05-06 01:54 24.38422 33.76266 36966 ft 497 kts 156°
2026-05-06 01:55 24.32667 33.80397 36960 ft 497 kts 156°
2026-05-06 01:55 24.26877 33.84551 36964 ft 497 kts 156°
2026-05-06 01:56 24.21088 33.88699 36965 ft 497 kts 156°
2026-05-06 01:56 24.15292 33.92847 36972 ft 497 kts 156°
2026-05-06 01:57 24.09500 33.96989 36964 ft 497 kts 156°
2026-05-06 01:57 24.03703 34.01129 36963 ft 497 kts 156°
2026-05-06 01:58 23.97911 34.05260 36957 ft 497 kts 156°
2026-05-06 01:58 23.92113 34.09392 36958 ft 497 kts 156°
2026-05-06 01:59 23.86306 34.13526 36960 ft 497 kts 156°
2026-05-06 01:59 23.80512 34.17648 36961 ft 497 kts 156°
2026-05-06 02:00 23.74722 34.21794 36962 ft 497 kts 156°
2026-05-06 02:00 23.68972 34.25915 36961 ft 497 kts 156°
2026-05-06 02:01 23.63177 34.30063 36962 ft 497 kts 156°
2026-05-06 02:01 23.57380 34.34204 36965 ft 497 kts 156°
2026-05-06 02:02 23.51588 34.38337 36962 ft 497 kts 156°
2026-05-06 02:02 23.45805 34.42459 36966 ft 497 kts 156°
2026-05-06 02:03 23.40050 34.46558 36961 ft 497 kts 156°
2026-05-06 02:03 23.34253 34.50682 36977 ft 497 kts 156°
2026-05-06 02:04 23.28461 34.54797 36969 ft 497 kts 156°
2026-05-06 02:04 23.22673 34.58908 36970 ft 497 kts 156°
2026-05-06 02:05 23.16883 34.63014 36970 ft 497 kts 156°
2026-05-06 02:05 23.11087 34.67116 36967 ft 497 kts 156°
2026-05-06 02:06 23.05337 34.71185 36967 ft 496 kts 156°
2026-05-06 02:06 22.99542 34.75283 36968 ft 496 kts 156°
2026-05-06 02:07 22.93754 34.79369 36971 ft 496 kts 156°
2026-05-06 02:07 22.87962 34.83455 36973 ft 496 kts 156°
2026-05-06 02:08 22.82177 34.87532 36974 ft 496 kts 156°
2026-05-06 02:08 22.76383 34.91610 36975 ft 496 kts 156°
2026-05-06 02:09 22.70599 34.95676 36982 ft 496 kts 156°
2026-05-06 02:09 22.64805 34.99747 36979 ft 496 kts 156°
2026-05-06 02:10 22.59042 35.03792 36981 ft 495 kts 156°
2026-05-06 02:10 22.53266 35.07843 36977 ft 495 kts 156°
2026-05-06 02:11 22.47489 35.11888 36974 ft 494 kts 156°
2026-05-06 02:11 22.41719 35.15924 36978 ft 494 kts 156°
2026-05-06 02:12 22.35948 35.19957 36982 ft 493 kts 156°
2026-05-06 02:12 22.30180 35.23984 36979 ft 493 kts 156°
2026-05-06 02:13 22.24414 35.28006 36987 ft 494 kts 156°
2026-05-06 02:13 22.18670 35.32008 36977 ft 493 kts 156°
2026-05-06 02:14 22.12904 35.36023 36976 ft 493 kts 156°
2026-05-06 02:14 22.07136 35.40035 36972 ft 493 kts 156°
2026-05-06 02:15 22.01356 35.44050 36970 ft 494 kts 156°
2026-05-06 02:15 21.95601 35.48069 36974 ft 493 kts 156°
2026-05-06 02:16 21.89848 35.52122 36970 ft 495 kts 156°
2026-05-06 02:16 21.84087 35.56176 36969 ft 494 kts 156°
2026-05-06 02:17 21.78366 35.60201 36962 ft 493 kts 156°
2026-05-06 02:17 21.72621 35.64230 36967 ft 493 kts 156°
2026-05-06 02:18 21.66871 35.68257 36958 ft 493 kts 156°
2026-05-06 02:18 21.61128 35.72276 36956 ft 493 kts 156°
2026-05-06 02:19 21.55386 35.76293 36951 ft 493 kts 156°
2026-05-06 02:19 21.49637 35.80309 36952 ft 493 kts 156°
2026-05-06 02:20 21.41006 35.86331 36949 ft 493 kts 156°
2026-05-06 02:21 21.35246 35.90346 36948 ft 493 kts 156°
2026-05-06 02:21 21.29520 35.94333 36948 ft 494 kts 156°
2026-05-06 02:22 21.23765 35.98337 36952 ft 494 kts 155°
2026-05-06 02:22 21.18001 36.02344 36945 ft 494 kts 155°
2026-05-06 02:23 21.12234 36.06346 36941 ft 493 kts 155°
2026-05-06 02:23 21.06472 36.10344 36944 ft 494 kts 155°
2026-05-06 02:24 21.00706 36.14341 36935 ft 493 kts 155°
2026-05-06 02:24 20.94949 36.18325 36933 ft 493 kts 155°
2026-05-06 02:25 20.89184 36.22311 36941 ft 493 kts 155°
2026-05-06 02:25 20.83412 36.26302 36937 ft 493 kts 155°
2026-05-06 02:26 20.77617 36.30194 36946 ft 488 kts 160°
2026-05-06 02:26 20.71380 36.32641 36929 ft 468 kts 176°
2026-05-06 02:27 20.65032 36.33160 36938 ft 458 kts 186°
2026-05-06 02:27 20.58650 36.33160 36931 ft 458 kts 187°
2026-05-06 02:28 20.52283 36.33109 36931 ft 458 kts 186°
2026-05-06 02:28 20.45910 36.33091 36933 ft 459 kts 186°
2026-05-06 02:29 20.39520 36.33095 36933 ft 459 kts 186°
2026-05-06 02:29 20.33121 36.33106 36933 ft 459 kts 186°
2026-05-06 02:30 20.26721 36.33117 36930 ft 460 kts 186°
2026-05-06 02:30 20.20327 36.33125 36933 ft 460 kts 186°
2026-05-06 02:31 20.13917 36.33133 36935 ft 460 kts 186°
2026-05-06 02:31 20.08585 36.33139 36936 ft 461 kts 186°
2026-05-06 02:32 20.01138 36.33148 36935 ft 461 kts 186°
2026-05-06 02:32 19.95760 36.33155 36941 ft 461 kts 186°
2026-05-06 02:33 19.89364 36.33163 36940 ft 462 kts 185°
2026-05-06 02:33 19.86156 36.33168 36941 ft 462 kts 185°
2026-05-06 02:34 19.76506 36.33180 36937 ft 463 kts 185°
2026-05-06 02:34 19.70053 36.33189 36939 ft 463 kts 185°
2026-05-06 02:35 19.63605 36.33197 36936 ft 463 kts 185°
2026-05-06 02:35 19.57154 36.33205 36936 ft 464 kts 185°
2026-05-06 02:36 19.50698 36.33213 36934 ft 464 kts 185°
2026-05-06 02:36 19.44231 36.33222 36937 ft 465 kts 185°
2026-05-06 02:37 19.37764 36.33230 36935 ft 465 kts 185°
2026-05-06 02:37 19.31282 36.33238 36933 ft 465 kts 185°
2026-05-06 02:38 19.24851 36.33246 36930 ft 466 kts 185°
2026-05-06 02:38 19.18361 36.33254 36929 ft 466 kts 185°
2026-05-06 02:39 19.11871 36.33262 36927 ft 466 kts 185°
2026-05-06 02:39 19.05372 36.33271 36924 ft 467 kts 185°
2026-05-06 02:40 18.98888 36.33278 36927 ft 468 kts 185°
2026-05-06 02:40 18.92374 36.33288 36921 ft 468 kts 185°
2026-05-06 02:41 18.85857 36.33296 36918 ft 468 kts 185°
2026-05-06 02:41 18.79338 36.33303 36914 ft 469 kts 185°
2026-05-06 02:42 18.72810 36.33311 36907 ft 469 kts 185°
2026-05-06 02:42 18.66319 36.33319 36903 ft 469 kts 184°
2026-05-06 02:43 18.59781 36.33327 36900 ft 470 kts 185°
2026-05-06 02:43 18.53227 36.33335 36892 ft 470 kts 185°
2026-05-06 02:44 18.46710 36.33344 36891 ft 471 kts 184°
2026-05-06 02:44 18.40157 36.33352 36884 ft 471 kts 184°
2026-05-06 02:45 18.33600 36.33360 36886 ft 471 kts 184°
2026-05-06 02:45 18.27024 36.33369 36882 ft 472 kts 184°
2026-05-06 02:46 18.20464 36.33377 36884 ft 472 kts 184°
2026-05-06 02:46 18.13888 36.33385 36883 ft 472 kts 184°
2026-05-06 02:47 18.07321 36.33393 36877 ft 472 kts 184°
2026-05-06 02:47 18.00742 36.33402 36873 ft 473 kts 184°
2026-05-06 02:48 17.94201 36.33410 36873 ft 473 kts 184°
2026-05-06 02:48 17.87625 36.33418 36876 ft 473 kts 184°
2026-05-06 02:49 17.81043 36.33426 36872 ft 473 kts 184°
2026-05-06 02:49 17.74452 36.33434 36866 ft 473 kts 184°
2026-05-06 02:50 17.67860 36.33442 36866 ft 474 kts 184°
2026-05-06 02:50 17.61262 36.33451 36864 ft 474 kts 184°
2026-05-06 02:51 17.54661 36.33459 36863 ft 474 kts 184°
2026-05-06 02:51 17.48067 36.33467 36863 ft 474 kts 184°
2026-05-06 02:52 17.41460 36.33475 36857 ft 475 kts 184°
2026-05-06 02:52 17.34845 36.33484 36856 ft 475 kts 184°
2026-05-06 02:53 17.28270 36.33492 36852 ft 476 kts 184°
2026-05-06 02:53 17.21647 36.33499 36850 ft 476 kts 184°
2026-05-06 02:54 17.15029 36.33508 36848 ft 476 kts 184°
2026-05-06 02:54 17.08392 36.33516 36849 ft 477 kts 184°
2026-05-06 02:55 17.01753 36.33525 36852 ft 477 kts 184°
2026-05-06 02:55 16.95113 36.33533 36840 ft 477 kts 183°
2026-05-06 02:56 16.88466 36.33541 36839 ft 478 kts 183°
2026-05-06 02:56 16.81810 36.33549 36835 ft 478 kts 183°
2026-05-06 02:57 16.75191 36.33557 36837 ft 479 kts 183°
2026-05-06 02:57 16.68519 36.33566 36829 ft 479 kts 183°
2026-05-06 02:58 16.61846 36.33574 36829 ft 480 kts 183°
2026-05-06 02:58 16.55166 36.33582 36836 ft 480 kts 183°
2026-05-06 02:59 16.48489 36.33590 36835 ft 480 kts 183°
2026-05-06 02:59 16.41800 36.33598 36824 ft 481 kts 183°
2026-05-06 03:00 16.35106 36.33607 36828 ft 481 kts 183°
2026-05-06 03:00 16.28449 36.33615 36823 ft 481 kts 183°
2026-05-06 03:01 16.21740 36.33623 36834 ft 482 kts 183°
2026-05-06 03:01 16.15042 36.33631 36825 ft 482 kts 183°
2026-05-06 03:02 16.08324 36.33640 36821 ft 482 kts 183°
2026-05-06 03:02 16.01611 36.33648 36826 ft 482 kts 183°
2026-05-06 03:03 15.94896 36.33656 36823 ft 482 kts 183°
2026-05-06 03:03 15.88223 36.33664 36818 ft 483 kts 183°
2026-05-06 03:04 15.81503 36.33673 36824 ft 482 kts 183°
2026-05-06 03:04 15.74782 36.33681 36818 ft 483 kts 183°
2026-05-06 03:05 15.68060 36.33689 36816 ft 483 kts 183°
2026-05-06 03:05 15.61336 36.33697 36810 ft 483 kts 183°
2026-05-06 03:06 15.54651 36.33705 36807 ft 484 kts 182°
2026-05-06 03:06 15.47913 36.33713 36809 ft 484 kts 182°
2026-05-06 03:07 15.41160 36.33722 36803 ft 485 kts 182°
2026-05-06 03:07 15.34432 36.33514 36801 ft 484 kts 186°
2026-05-06 03:08 15.27705 36.33002 36801 ft 484 kts 187°
2026-05-06 03:08 15.20985 36.32503 36796 ft 485 kts 186°
2026-05-06 03:09 15.14243 36.32058 36794 ft 486 kts 186°
2026-05-06 03:09 15.07486 36.31638 36794 ft 486 kts 186°
2026-05-06 03:10 15.00724 36.31220 36791 ft 486 kts 186°
2026-05-06 03:10 14.94008 36.30803 36791 ft 487 kts 186°
2026-05-06 03:11 14.87248 36.30382 36790 ft 487 kts 186°
2026-05-06 03:11 14.80468 36.29960 36789 ft 488 kts 186°
2026-05-06 03:12 14.73685 36.29538 36789 ft 488 kts 186°
2026-05-06 03:12 14.66905 36.29116 36790 ft 488 kts 186°
2026-05-06 03:13 14.60110 36.28694 36791 ft 489 kts 186°
2026-05-06 03:13 14.53324 36.28273 36791 ft 489 kts 186°
2026-05-06 03:14 14.46532 36.27852 36792 ft 489 kts 186°
2026-05-06 03:14 14.39779 36.27433 36795 ft 489 kts 186°
2026-05-06 03:15 14.32981 36.27012 36792 ft 489 kts 186°
2026-05-06 03:15 14.26180 36.26590 36794 ft 490 kts 186°
2026-05-06 03:16 14.19372 36.26169 36795 ft 490 kts 185°
2026-05-06 03:16 14.12562 36.25747 36792 ft 490 kts 185°
2026-05-06 03:17 14.05790 36.25329 36795 ft 490 kts 185°
2026-05-06 03:17 13.98983 36.24908 36796 ft 490 kts 185°
2026-05-06 03:18 13.92170 36.24488 36802 ft 490 kts 185°
2026-05-06 03:18 13.85352 36.24067 36797 ft 491 kts 185°
2026-05-06 03:19 13.78525 36.23646 36802 ft 491 kts 185°
2026-05-06 03:19 13.71705 36.23250 36802 ft 492 kts 183°
2026-05-06 03:20 13.61644 36.25310 36807 ft 499 kts 157°
2026-05-06 03:20 13.55427 36.28418 36807 ft 501 kts 155°
2026-05-06 03:21 13.49242 36.31726 36811 ft 501 kts 154°
2026-05-06 03:21 13.43046 36.35024 36818 ft 501 kts 155°
2026-05-06 03:22 13.37892 36.37735 36819 ft 501 kts 155°
2026-05-06 03:22 13.31676 36.40984 36829 ft 501 kts 155°
2026-05-06 03:23 13.25454 36.44232 36829 ft 501 kts 155°
2026-05-06 03:23 13.19240 36.47475 36843 ft 501 kts 155°
2026-05-06 03:24 13.13023 36.50718 36841 ft 501 kts 155°
2026-05-06 03:24 13.06810 36.53959 36846 ft 501 kts 155°
2026-05-06 03:25 13.00629 36.57181 36853 ft 501 kts 155°
2026-05-06 03:25 12.94415 36.60417 36855 ft 501 kts 155°
2026-05-06 03:26 12.88191 36.63661 36877 ft 502 kts 154°
2026-05-06 03:26 12.81973 36.66906 36868 ft 502 kts 154°
2026-05-06 03:27 12.75739 36.70155 36868 ft 502 kts 154°
2026-05-06 03:27 12.69513 36.73399 36890 ft 502 kts 154°
2026-05-06 03:28 12.63300 36.76723 36885 ft 503 kts 154°
2026-05-06 03:28 12.57110 36.80077 36910 ft 503 kts 154°
2026-05-06 03:29 12.50921 36.83417 36920 ft 503 kts 154°
2026-05-06 03:29 12.44712 36.86754 36912 ft 504 kts 154°
2026-05-06 03:30 12.38495 36.90089 36936 ft 504 kts 154°
2026-05-06 03:30 12.32290 36.93416 36956 ft 504 kts 154°
2026-05-06 03:31 12.26119 36.96724 36965 ft 504 kts 154°
2026-05-06 03:31 12.19901 37.00055 36972 ft 504 kts 154°
2026-05-06 03:32 12.13692 37.03380 36966 ft 504 kts 154°
2026-05-06 03:32 12.07471 37.06710 36985 ft 504 kts 154°
2026-05-06 03:33 12.01288 37.10016 36986 ft 504 kts 154°
2026-05-06 03:33 11.95086 37.13332 36991 ft 504 kts 154°
2026-05-06 03:34 11.88866 37.16656 36990 ft 504 kts 154°
2026-05-06 03:34 11.82657 37.19971 36994 ft 503 kts 154°
2026-05-06 03:35 11.76443 37.23289 36995 ft 503 kts 154°
2026-05-06 03:35 11.70235 37.26601 37004 ft 503 kts 154°
2026-05-06 03:36 11.64028 37.29911 37008 ft 503 kts 154°
2026-05-06 03:36 11.57841 37.33244 37008 ft 503 kts 152°
2026-05-06 03:37 11.51802 37.36788 37012 ft 504 kts 151°
2026-05-06 03:37 11.45748 37.40412 37015 ft 503 kts 151°
2026-05-06 03:38 11.39693 37.43994 37019 ft 503 kts 151°
2026-05-06 03:38 11.33604 37.47564 37032 ft 503 kts 152°
2026-05-06 03:39 11.27575 37.51089 37037 ft 503 kts 152°
2026-05-06 03:39 11.21502 37.54638 37042 ft 503 kts 152°
2026-05-06 03:40 11.15431 37.58187 37048 ft 503 kts 152°
2026-05-06 03:40 11.09358 37.61736 37054 ft 503 kts 152°
2026-05-06 03:41 11.03283 37.65283 37059 ft 503 kts 152°
2026-05-06 03:41 10.97215 37.68826 37065 ft 503 kts 151°
2026-05-06 03:42 10.91137 37.72372 37070 ft 503 kts 152°
2026-05-06 03:42 10.85063 37.75915 37075 ft 503 kts 151°
2026-05-06 03:43 10.79023 37.79435 37083 ft 503 kts 151°
2026-05-06 03:43 10.72942 37.82979 37090 ft 504 kts 151°
2026-05-06 03:44 10.66860 37.86521 37090 ft 504 kts 151°
2026-05-06 03:44 10.60776 37.90062 37086 ft 504 kts 151°
2026-05-06 03:45 10.54682 37.93608 37086 ft 504 kts 151°
2026-05-06 03:45 10.48592 37.97151 37082 ft 504 kts 151°
2026-05-06 03:46 10.42505 38.00689 37073 ft 504 kts 151°
2026-05-06 03:46 10.36420 38.04224 37063 ft 504 kts 151°
2026-05-06 03:47 10.30370 38.07739 37048 ft 504 kts 151°
2026-05-06 03:47 10.24287 38.11270 37041 ft 504 kts 151°
2026-05-06 03:48 10.18200 38.14803 37034 ft 503 kts 151°
2026-05-06 03:48 10.12121 38.18329 37031 ft 503 kts 151°
2026-05-06 03:49 10.06040 38.21855 37027 ft 503 kts 151°
2026-05-06 03:49 9.99983 38.25366 37027 ft 503 kts 151°
2026-05-06 03:50 9.93899 38.28890 37028 ft 503 kts 151°
2026-05-06 03:50 9.87823 38.32408 37030 ft 503 kts 151°
2026-05-06 03:51 9.81741 38.35928 37040 ft 503 kts 151°
2026-05-06 03:51 9.75654 38.39450 37042 ft 503 kts 151°
2026-05-06 03:52 9.69568 38.42969 37053 ft 504 kts 151°
2026-05-06 03:52 9.63484 38.46486 37066 ft 504 kts 151°
2026-05-06 03:53 9.57388 38.50009 37072 ft 504 kts 151°
2026-05-06 03:53 9.51301 38.53525 37082 ft 504 kts 151°
2026-05-06 03:54 9.45207 38.57044 37088 ft 504 kts 151°
2026-05-06 03:54 9.39105 38.60565 37094 ft 504 kts 151°
2026-05-06 03:55 9.33015 38.64078 37096 ft 504 kts 151°
2026-05-06 03:55 9.26957 38.67571 37099 ft 504 kts 151°
2026-05-06 03:56 9.20867 38.71082 37102 ft 504 kts 151°
2026-05-06 03:56 9.14621 38.74272 37100 ft 502 kts 161°
2026-05-06 03:57 9.07799 38.75591 37095 ft 498 kts 180°
2026-05-06 03:57 9.00971 38.74677 37089 ft 496 kts 194°
2026-05-06 03:58 8.94251 38.72999 37079 ft 497 kts 195°
2026-05-06 03:58 8.87562 38.71248 37077 ft 497 kts 195°
2026-05-06 03:59 8.80860 38.69531 37075 ft 497 kts 195°
2026-05-06 03:59 8.74148 38.67845 37072 ft 497 kts 195°
2026-05-06 04:00 8.67479 38.66178 37066 ft 497 kts 195°
2026-05-06 04:00 8.60761 38.64498 37069 ft 497 kts 195°
2026-05-06 04:01 8.54044 38.62818 37068 ft 497 kts 195°
2026-05-06 04:01 8.47326 38.61137 37067 ft 497 kts 195°
2026-05-06 04:02 8.40610 38.59458 37068 ft 498 kts 195°
2026-05-06 04:02 8.33883 38.57777 37067 ft 498 kts 195°
2026-05-06 04:03 8.27159 38.56106 37065 ft 498 kts 194°
2026-05-06 04:03 8.20244 38.55515 37061 ft 501 kts 176°
2026-05-06 04:04 8.13497 38.57181 37061 ft 503 kts 156°
2026-05-06 04:04 8.07465 38.60765 37055 ft 503 kts 147°
2026-05-06 04:05 8.01671 38.64740 37047 ft 504 kts 146°
2026-05-06 04:05 7.95926 38.68708 37042 ft 504 kts 146°
2026-05-06 04:06 7.90119 38.72666 37044 ft 504 kts 146°
2026-05-06 04:06 7.84288 38.76609 37044 ft 504 kts 146°
2026-05-06 04:07 7.78457 38.80545 37050 ft 504 kts 146°
2026-05-06 04:07 7.72621 38.84484 37058 ft 504 kts 146°
2026-05-06 04:08 7.66788 38.88423 37070 ft 505 kts 146°
2026-05-06 04:08 7.61928 38.91703 37080 ft 506 kts 146°
2026-05-06 04:09 7.56076 38.95652 37088 ft 506 kts 146°
2026-05-06 04:09 7.49264 39.00248 37102 ft 507 kts 146°
2026-05-06 04:10 7.44383 39.03539 37114 ft 507 kts 146°
2026-05-06 04:10 7.38716 39.07769 37125 ft 507 kts 141°
2026-05-06 04:11 7.33205 39.12221 37129 ft 507 kts 141°
2026-05-06 04:11 7.27727 39.16699 37136 ft 507 kts 141°
2026-05-06 04:12 7.22240 39.21177 37138 ft 507 kts 141°
2026-05-06 04:12 7.16761 39.25638 37138 ft 507 kts 141°
2026-05-06 04:13 7.11298 39.30081 37141 ft 507 kts 141°
2026-05-06 04:13 7.05817 39.34537 37143 ft 507 kts 141°
2026-05-06 04:14 7.00334 39.38993 37145 ft 507 kts 141°
2026-05-06 04:14 6.94840 39.43458 37142 ft 507 kts 141°
2026-05-06 04:15 6.89348 39.47921 37139 ft 506 kts 141°
2026-05-06 04:15 6.83865 39.52373 37139 ft 506 kts 141°
2026-05-06 04:16 6.78386 39.56821 37136 ft 506 kts 141°
2026-05-06 04:16 6.72907 39.61268 37132 ft 505 kts 141°
2026-05-06 04:17 6.67479 39.65672 37122 ft 504 kts 141°
2026-05-06 04:17 6.62014 39.70105 37104 ft 504 kts 141°
2026-05-06 04:18 6.56554 39.74532 37087 ft 503 kts 141°
2026-05-06 04:18 6.51104 39.78951 37078 ft 503 kts 141°
2026-05-06 04:19 6.45661 39.83362 37060 ft 502 kts 141°
2026-05-06 04:19 6.40280 39.87842 37051 ft 501 kts 138°
2026-05-06 04:20 6.35144 39.92507 37042 ft 501 kts 137°
2026-05-06 04:20 6.29990 39.97228 37038 ft 501 kts 137°
2026-05-06 04:21 6.24803 40.01916 37033 ft 501 kts 138°
2026-05-06 04:21 6.19549 40.06523 37028 ft 501 kts 141°
2026-05-06 04:22 6.14049 40.10825 37024 ft 501 kts 142°
2026-05-06 04:23 6.05764 40.17223 37024 ft 501 kts 142°
2026-05-06 04:23 6.00324 40.21507 37026 ft 500 kts 141°
2026-05-06 04:24 5.94846 40.25845 37028 ft 500 kts 141°
2026-05-06 04:24 5.89379 40.30175 37032 ft 500 kts 141°
2026-05-06 04:25 5.83901 40.34509 37030 ft 500 kts 141°
2026-05-06 04:25 5.78429 40.38836 37019 ft 501 kts 141°
2026-05-06 04:26 5.72943 40.43172 37024 ft 502 kts 141°
2026-05-06 04:26 5.67479 40.47490 37025 ft 502 kts 141°
2026-05-06 04:27 5.61993 40.51825 37019 ft 502 kts 141°
2026-05-06 04:27 5.56509 40.56156 37020 ft 502 kts 141°
2026-05-06 04:28 5.51019 40.60492 37019 ft 502 kts 141°
2026-05-06 04:28 5.45531 40.64825 37018 ft 502 kts 141°
2026-05-06 04:29 5.40038 40.69160 37019 ft 502 kts 141°
2026-05-06 04:29 5.34578 40.73470 37019 ft 501 kts 141°
2026-05-06 04:30 5.29091 40.77799 37014 ft 501 kts 141°
2026-05-06 04:30 5.23609 40.82123 37015 ft 501 kts 141°
2026-05-06 04:31 5.18131 40.86456 37015 ft 501 kts 141°
2026-05-06 04:31 5.12697 40.90842 37013 ft 501 kts 141°
2026-05-06 04:32 5.07271 40.95240 37012 ft 501 kts 141°
2026-05-06 04:32 5.01843 40.99627 37006 ft 501 kts 141°
2026-05-06 04:33 4.96438 41.03988 37002 ft 501 kts 141°
2026-05-06 04:33 4.90994 41.08376 37002 ft 501 kts 141°
2026-05-06 04:34 4.85566 41.12751 36998 ft 501 kts 141°
2026-05-06 04:34 4.80135 41.17128 36998 ft 500 kts 141°
2026-05-06 04:35 4.74708 41.21500 36996 ft 500 kts 141°
2026-05-06 04:35 4.69311 41.25848 36996 ft 500 kts 141°
2026-05-06 04:36 4.63890 41.30215 36993 ft 500 kts 141°
2026-05-06 04:36 4.58469 41.34580 36987 ft 500 kts 141°
2026-05-06 04:37 4.53049 41.38943 36984 ft 500 kts 141°
2026-05-06 04:37 4.47620 41.43313 36984 ft 500 kts 141°
2026-05-06 04:38 4.42197 41.47678 36975 ft 500 kts 141°
2026-05-06 04:38 4.36771 41.52043 36974 ft 500 kts 141°
2026-05-06 04:39 4.31342 41.56411 36972 ft 500 kts 141°
2026-05-06 04:39 4.25919 41.60772 36970 ft 500 kts 141°
2026-05-06 04:40 4.20486 41.65142 36967 ft 500 kts 141°
2026-05-06 04:40 4.15095 41.69476 36966 ft 500 kts 141°
2026-05-06 04:41 4.09662 41.73844 36965 ft 500 kts 141°
2026-05-06 04:41 4.04236 41.78205 36963 ft 500 kts 141°
2026-05-06 04:42 3.98812 41.82564 36963 ft 500 kts 141°
2026-05-06 04:42 3.93822 41.87389 36959 ft 500 kts 127°
2026-05-06 04:43 3.90094 41.93259 36963 ft 499 kts 120°
2026-05-06 04:43 3.86693 41.99329 36961 ft 500 kts 118°
2026-05-06 04:44 3.83331 42.05419 36959 ft 500 kts 119°
2026-05-06 04:44 3.79963 42.11463 36959 ft 500 kts 119°
2026-05-06 04:45 3.76559 42.17529 36961 ft 500 kts 119°
2026-05-06 04:45 3.73150 42.23594 36960 ft 500 kts 119°
2026-05-06 04:46 3.69738 42.29663 36961 ft 500 kts 119°
2026-05-06 04:46 3.66326 42.35736 36962 ft 500 kts 119°
2026-05-06 04:47 3.62916 42.41803 36959 ft 500 kts 119°
2026-05-06 04:47 3.59500 42.47880 36962 ft 500 kts 119°
2026-05-06 04:48 3.56084 42.53955 36964 ft 500 kts 119°
2026-05-06 04:48 3.52695 42.59982 36962 ft 500 kts 119°
2026-05-06 04:49 3.49282 42.66049 36962 ft 500 kts 119°
2026-05-06 04:49 3.45865 42.72123 36963 ft 500 kts 119°
2026-05-06 04:50 3.42456 42.78182 36965 ft 500 kts 120°
2026-05-06 04:50 3.39039 42.84253 36967 ft 500 kts 120°
2026-05-06 04:51 3.35632 42.90305 36967 ft 500 kts 120°
2026-05-06 04:51 3.32220 42.96366 36969 ft 500 kts 120°
2026-05-06 04:52 3.28802 43.02436 36972 ft 499 kts 120°
2026-05-06 04:52 3.25394 43.08486 36976 ft 499 kts 120°
2026-05-06 04:53 3.21985 43.14538 36977 ft 499 kts 120°
2026-05-06 04:53 3.18599 43.20548 36981 ft 499 kts 120°
2026-05-06 04:54 3.15189 43.26600 36980 ft 499 kts 120°
2026-05-06 04:54 3.11778 43.32652 36981 ft 498 kts 120°
2026-05-06 04:55 3.08374 43.38690 36984 ft 498 kts 120°
2026-05-06 04:55 3.04964 43.44739 36983 ft 498 kts 120°
2026-05-06 04:56 3.01560 43.50776 36982 ft 498 kts 120°
2026-05-06 04:56 2.98177 43.56774 36981 ft 498 kts 120°
2026-05-06 04:57 2.94769 43.62817 36978 ft 498 kts 120°
2026-05-06 04:57 2.91360 43.68860 36974 ft 498 kts 119°
2026-05-06 04:58 2.87957 43.74891 36974 ft 498 kts 119°
2026-05-06 04:58 2.84547 43.80935 36972 ft 498 kts 119°
2026-05-06 04:59 2.81718 43.85948 36973 ft 498 kts 119°
2026-05-06 04:59 2.78304 43.91995 36964 ft 499 kts 119°
2026-05-06 05:00 2.74895 43.98034 36967 ft 499 kts 119°
2026-05-06 05:00 2.71481 44.04081 36966 ft 499 kts 119°
2026-05-06 05:01 2.68065 44.10129 36963 ft 499 kts 119°
2026-05-06 05:01 2.64674 44.16133 36964 ft 499 kts 119°
2026-05-06 05:02 2.61262 44.22174 36964 ft 499 kts 119°
2026-05-06 05:02 2.57850 44.28216 36961 ft 499 kts 119°
2026-05-06 05:03 2.54432 44.34265 36961 ft 499 kts 119°
2026-05-06 05:03 2.51015 44.40311 36959 ft 499 kts 119°
2026-05-06 05:04 2.47622 44.46315 36960 ft 499 kts 119°
2026-05-06 05:04 2.44206 44.52358 36957 ft 499 kts 119°
2026-05-06 05:05 2.40789 44.58403 36957 ft 499 kts 119°
2026-05-06 05:05 2.37371 44.64448 36952 ft 499 kts 119°
2026-05-06 05:06 2.33953 44.70494 36955 ft 499 kts 120°
2026-05-06 05:06 2.30535 44.76537 36952 ft 499 kts 120°
2026-05-06 05:07 2.27120 44.82575 36951 ft 499 kts 120°
2026-05-06 05:07 2.23701 44.88620 36953 ft 499 kts 120°
2026-05-06 05:08 2.20285 44.94657 36952 ft 498 kts 120°
2026-05-06 05:08 2.16875 45.00683 36936 ft 497 kts 120°
2026-05-06 05:09 2.13492 45.06664 36920 ft 497 kts 120°
2026-05-06 05:09 2.10090 45.12674 36907 ft 496 kts 120°
2026-05-06 05:10 2.06695 45.18673 36893 ft 496 kts 120°
2026-05-06 05:10 2.03202 45.24608 36884 ft 495 kts 126°
2026-05-06 05:11 1.98497 45.29588 36885 ft 493 kts 143°
2026-05-06 05:11 1.92530 45.32919 36885 ft 492 kts 156°
2026-05-06 05:12 1.86237 45.35636 36896 ft 493 kts 157°
2026-05-06 05:12 1.79907 45.38285 36910 ft 493 kts 157°
2026-05-06 05:13 1.73590 45.40964 36917 ft 493 kts 157°
2026-05-06 05:13 1.67324 45.43650 36931 ft 493 kts 157°
2026-05-06 05:14 1.61027 45.46358 36933 ft 493 kts 156°
2026-05-06 05:14 1.54720 45.49069 36934 ft 492 kts 156°
2026-05-06 05:15 1.48427 45.51773 36931 ft 492 kts 156°
2026-05-06 05:15 1.42142 45.54473 36929 ft 492 kts 156°
2026-05-06 05:16 1.35851 45.57174 36933 ft 492 kts 156°
2026-05-06 05:16 1.29599 45.59860 36932 ft 491 kts 156°
2026-05-06 05:17 1.23327 45.62553 36930 ft 490 kts 156°
2026-05-06 05:17 1.17061 45.65244 36933 ft 489 kts 156°
2026-05-06 05:18 1.10800 45.67933 36933 ft 489 kts 156°
2026-05-06 05:18 1.04551 45.70616 36933 ft 489 kts 156°
2026-05-06 05:19 0.98302 45.73299 36930 ft 488 kts 156°
2026-05-06 05:19 0.92063 45.75977 36930 ft 488 kts 156°
2026-05-06 05:20 0.85823 45.78656 36934 ft 488 kts 156°
2026-05-06 05:20 0.79624 45.81317 36934 ft 488 kts 156°
2026-05-06 05:21 0.73382 45.83997 36931 ft 488 kts 156°
2026-05-06 05:21 0.67128 45.86682 36932 ft 489 kts 156°
2026-05-06 05:22 0.60871 45.89368 36934 ft 489 kts 156°
2026-05-06 05:22 0.54619 45.92052 36934 ft 490 kts 156°
2026-05-06 05:23 0.48408 45.94763 36934 ft 490 kts 155°
2026-05-06 05:23 0.39041 45.98877 36935 ft 490 kts 155°
2026-05-06 05:24 0.32786 46.01618 36934 ft 490 kts 155°
2026-05-06 05:24 0.26530 46.04358 36931 ft 491 kts 155°
2026-05-06 05:25 0.20274 46.07097 36931 ft 491 kts 155°
2026-05-06 05:25 0.14014 46.09838 36933 ft 491 kts 155°
2026-05-06 05:26 0.07759 46.12576 36931 ft 491 kts 155°
2026-05-06 05:26 0.01492 46.15320 36931 ft 491 kts 155°
2026-05-06 05:27 -0.04774 46.18063 36930 ft 491 kts 155°
2026-05-06 05:27 -0.11004 46.20791 36930 ft 491 kts 155°
2026-05-06 05:28 -0.17266 46.23533 36928 ft 491 kts 155°
2026-05-06 05:28 -0.23547 46.26258 36932 ft 491 kts 155°
2026-05-06 05:29 -0.29836 46.28930 36930 ft 491 kts 155°
2026-05-06 05:29 -0.36123 46.31598 36932 ft 491 kts 155°
2026-05-06 05:30 -0.42414 46.34277 36931 ft 491 kts 155°
2026-05-06 05:30 -0.48690 46.36954 36930 ft 491 kts 155°
2026-05-06 05:31 -0.54971 46.39634 36930 ft 491 kts 155°
2026-05-06 05:31 -0.61252 46.42313 36929 ft 490 kts 155°
2026-05-06 05:32 -0.67527 46.44990 36930 ft 490 kts 155°
2026-05-06 05:32 -0.73754 46.47647 36929 ft 490 kts 155°
2026-05-06 05:33 -0.80021 46.50320 36931 ft 490 kts 155°
2026-05-06 05:33 -0.86293 46.52996 36935 ft 489 kts 156°
2026-05-06 05:34 -0.92558 46.55669 36935 ft 489 kts 156°
2026-05-06 05:34 -0.98815 46.58338 36932 ft 489 kts 156°
2026-05-06 05:35 -1.05078 46.61011 36928 ft 489 kts 156°
2026-05-06 05:35 -1.11308 46.63669 36934 ft 490 kts 156°
2026-05-06 05:36 -1.17582 46.66343 36933 ft 490 kts 156°
2026-05-06 05:36 -1.23849 46.69018 36931 ft 490 kts 156°
2026-05-06 05:37 -1.30110 46.71692 36930 ft 490 kts 156°
2026-05-06 05:37 -1.36384 46.74370 36934 ft 490 kts 156°
2026-05-06 05:38 -1.42652 46.77045 36933 ft 490 kts 156°
2026-05-06 05:38 -1.48917 46.79719 36933 ft 490 kts 156°
2026-05-06 05:39 -1.55186 46.82395 36931 ft 490 kts 156°
2026-05-06 05:39 -1.61418 46.85055 36935 ft 490 kts 156°
2026-05-06 05:40 -1.67693 46.87734 36935 ft 490 kts 156°
2026-05-06 05:40 -1.73963 46.90411 36933 ft 490 kts 156°
2026-05-06 05:41 -1.80240 46.93091 36932 ft 490 kts 156°
2026-05-06 05:41 -1.86477 46.95754 36933 ft 490 kts 156°
2026-05-06 05:42 -1.92754 46.98435 36934 ft 490 kts 156°
2026-05-06 05:42 -1.99021 47.01111 36933 ft 490 kts 156°
2026-05-06 05:43 -2.05301 47.03794 36931 ft 490 kts 156°
2026-05-06 05:43 -2.11573 47.06472 36934 ft 490 kts 156°
2026-05-06 05:44 -2.17854 47.09155 36933 ft 490 kts 156°
2026-05-06 05:44 -2.24129 47.11836 36935 ft 490 kts 156°
2026-05-06 05:45 -2.30354 47.14496 36936 ft 490 kts 156°
2026-05-06 05:45 -2.36640 47.17181 36933 ft 490 kts 156°
2026-05-06 05:46 -2.42907 47.19859 36935 ft 490 kts 156°
2026-05-06 05:46 -2.49187 47.22543 36936 ft 490 kts 156°
2026-05-06 05:47 -2.55457 47.25224 36935 ft 490 kts 156°
2026-05-06 05:47 -2.61728 47.27906 36934 ft 490 kts 156°
2026-05-06 05:48 -2.66961 47.30144 36935 ft 491 kts 156°
2026-05-06 05:48 -2.74276 47.33271 36937 ft 492 kts 156°
2026-05-06 05:49 -2.79554 47.35528 36937 ft 492 kts 156°
2026-05-06 05:49 -2.85817 47.38206 36934 ft 493 kts 156°
2026-05-06 05:50 -2.92130 47.40906 36936 ft 493 kts 156°
2026-05-06 05:50 -2.98438 47.43604 36935 ft 493 kts 156°
2026-05-06 05:51 -3.04762 47.46311 36940 ft 494 kts 156°
2026-05-06 05:51 -3.11083 47.49016 36936 ft 495 kts 156°
2026-05-06 05:52 -3.17413 47.51724 36936 ft 495 kts 156°
2026-05-06 05:52 -3.23744 47.54433 36938 ft 495 kts 156°
2026-05-06 05:53 -3.30075 47.57143 36939 ft 495 kts 156°
2026-05-06 05:53 -3.36420 47.59860 36935 ft 496 kts 156°
2026-05-06 05:54 -3.42767 47.62577 36937 ft 496 kts 156°
2026-05-06 05:54 -3.49121 47.65298 36939 ft 497 kts 156°
2026-05-06 05:55 -3.55442 47.68005 36939 ft 497 kts 156°
2026-05-06 05:55 -3.61806 47.70731 36936 ft 496 kts 156°
2026-05-06 05:56 -3.68167 47.73457 36936 ft 496 kts 156°
2026-05-06 05:56 -3.74523 47.76180 36938 ft 496 kts 156°
2026-05-06 05:57 -3.80833 47.78884 36938 ft 496 kts 155°
2026-05-06 05:57 -3.87185 47.81607 36937 ft 496 kts 155°
2026-05-06 05:58 -3.93534 47.84329 36937 ft 496 kts 155°
2026-05-06 05:58 -3.99889 47.87053 36936 ft 496 kts 155°
2026-05-06 05:59 -4.06244 47.89778 36940 ft 497 kts 155°
2026-05-06 05:59 -4.12602 47.92507 36935 ft 497 kts 155°
2026-05-06 06:00 -4.18953 47.95233 36937 ft 496 kts 155°
2026-05-06 06:00 -4.25261 47.97942 36937 ft 496 kts 155°
2026-05-06 06:01 -4.31618 48.00663 36939 ft 496 kts 155°
2026-05-06 06:01 -4.37962 48.03375 36938 ft 496 kts 155°
2026-05-06 06:02 -4.44311 48.06092 36937 ft 496 kts 155°
2026-05-06 06:02 -4.50665 48.08817 36937 ft 496 kts 155°
2026-05-06 06:03 -4.57020 48.11540 36940 ft 496 kts 155°
2026-05-06 06:03 -4.63374 48.14265 36937 ft 497 kts 155°
2026-05-06 06:04 -4.69724 48.16987 36941 ft 497 kts 155°
2026-05-06 06:04 -4.76083 48.19714 36938 ft 497 kts 155°
2026-05-06 06:05 -4.82440 48.22441 36935 ft 497 kts 155°
2026-05-06 06:05 -4.88755 48.25153 36941 ft 497 kts 155°
2026-05-06 06:06 -4.95108 48.27881 36943 ft 497 kts 155°
2026-05-06 06:06 -5.01461 48.30606 36944 ft 496 kts 155°
2026-05-06 06:07 -5.07815 48.33330 36941 ft 496 kts 155°
2026-05-06 06:07 -5.14168 48.36059 36939 ft 497 kts 155°
2026-05-06 06:08 -5.20527 48.38791 36936 ft 497 kts 155°
2026-05-06 06:08 -5.26884 48.41522 36939 ft 497 kts 155°
2026-05-06 06:09 -5.33244 48.44255 36937 ft 497 kts 155°
2026-05-06 06:09 -5.39597 48.46985 36940 ft 497 kts 155°
2026-05-06 06:10 -5.45921 48.49702 36938 ft 497 kts 155°
2026-05-06 06:10 -5.52282 48.52436 36941 ft 497 kts 155°
2026-05-06 06:11 -5.58647 48.55176 36941 ft 497 kts 155°
2026-05-06 06:11 -5.65003 48.57910 36947 ft 497 kts 155°
2026-05-06 06:12 -5.71368 48.60649 36942 ft 497 kts 155°
2026-05-06 06:12 -5.77734 48.63392 36944 ft 497 kts 155°
2026-05-06 06:13 -5.84095 48.66131 36941 ft 497 kts 155°
2026-05-06 06:13 -5.90458 48.68870 36944 ft 497 kts 155°
2026-05-06 06:14 -5.96829 48.71614 36946 ft 498 kts 155°
2026-05-06 06:14 -6.03162 48.74343 36947 ft 498 kts 155°
2026-05-06 06:15 -6.09537 48.77091 36944 ft 498 kts 155°
2026-05-06 06:15 -6.15913 48.79838 36945 ft 498 kts 155°
2026-05-06 06:16 -6.22290 48.82588 36948 ft 499 kts 155°
2026-05-06 06:16 -6.28672 48.85341 36951 ft 499 kts 155°
2026-05-06 06:17 -6.35064 48.88097 36950 ft 500 kts 155°
2026-05-06 06:17 -6.41453 48.90854 36949 ft 500 kts 156°
2026-05-06 06:18 -6.47806 48.93595 36949 ft 500 kts 156°
2026-05-06 06:18 -6.54205 48.96358 36952 ft 500 kts 156°
2026-05-06 06:19 -6.60608 48.99123 36951 ft 501 kts 156°
2026-05-06 06:19 -6.67026 49.01896 36954 ft 501 kts 156°
2026-05-06 06:20 -6.73443 49.04666 36953 ft 502 kts 156°
2026-05-06 06:20 -6.79825 49.07426 36946 ft 502 kts 156°
2026-05-06 06:21 -6.86245 49.10203 36949 ft 502 kts 156°
2026-05-06 06:21 -6.92661 49.12979 36951 ft 502 kts 156°
2026-05-06 06:22 -6.99089 49.15758 36955 ft 502 kts 156°
2026-05-06 06:22 -7.05518 49.18543 36953 ft 503 kts 156°
2026-05-06 06:23 -7.11936 49.21320 36951 ft 503 kts 156°
2026-05-06 06:23 -7.18366 49.24102 36952 ft 502 kts 156°
2026-05-06 06:24 -7.24792 49.26884 36955 ft 502 kts 156°
2026-05-06 06:24 -7.31168 49.29647 36955 ft 502 kts 156°
2026-05-06 06:25 -7.37592 49.32428 36959 ft 502 kts 156°
2026-05-06 06:26 -7.47237 49.36611 36959 ft 502 kts 155°
2026-05-06 06:26 -7.53669 49.39401 36957 ft 503 kts 156°
2026-05-06 06:27 -7.60094 49.42187 36958 ft 503 kts 156°
2026-05-06 06:27 -7.66492 49.44963 36959 ft 503 kts 156°
2026-05-06 06:28 -7.72934 49.47761 36962 ft 504 kts 155°
2026-05-06 06:28 -7.79381 49.50562 36957 ft 504 kts 155°
2026-05-06 06:29 -7.85823 49.53361 36959 ft 504 kts 155°
2026-05-06 06:29 -7.92273 49.56163 36962 ft 505 kts 156°
2026-05-06 06:30 -7.98724 49.58964 36962 ft 505 kts 156°
2026-05-06 06:30 -8.05175 49.61773 36962 ft 505 kts 156°
2026-05-06 06:31 -8.11593 49.64566 36962 ft 505 kts 156°
2026-05-06 06:31 -8.18051 49.67377 36963 ft 505 kts 156°
2026-05-06 06:32 -8.24506 49.70185 36963 ft 505 kts 156°
2026-05-06 06:32 -8.30957 49.72995 36964 ft 505 kts 156°
2026-05-06 06:33 -8.37408 49.75805 36964 ft 505 kts 156°
2026-05-06 06:33 -8.43815 49.78598 36966 ft 505 kts 156°
2026-05-06 06:34 -8.50272 49.81413 36967 ft 505 kts 156°
2026-05-06 06:34 -8.56729 49.84229 36965 ft 505 kts 156°
2026-05-06 06:35 -8.63189 49.87048 36969 ft 505 kts 156°
2026-05-06 06:35 -8.69653 49.89869 36967 ft 506 kts 156°
2026-05-06 06:36 -8.76118 49.92692 36971 ft 506 kts 156°
2026-05-06 06:36 -8.81481 49.95035 36967 ft 506 kts 156°
2026-05-06 06:37 -8.89000 49.98320 36969 ft 505 kts 157°
2026-05-06 06:37 -8.95453 50.01141 36973 ft 505 kts 157°
2026-05-06 06:38 -9.00860 50.03506 36973 ft 505 kts 157°
2026-05-06 06:38 -9.07315 50.06329 36975 ft 505 kts 157°
2026-05-06 06:39 -9.13761 50.09149 36974 ft 505 kts 157°
2026-05-06 06:39 -9.20171 50.11955 36972 ft 504 kts 158°
2026-05-06 06:40 -9.26610 50.14776 36970 ft 504 kts 158°
2026-05-06 06:40 -9.33045 50.17594 36972 ft 504 kts 158°
2026-05-06 06:41 -9.39492 50.20419 36975 ft 504 kts 158°
2026-05-06 06:41 -9.45898 50.23228 36978 ft 504 kts 158°
2026-05-06 06:42 -9.52333 50.26049 36973 ft 504 kts 158°
2026-05-06 06:42 -9.58773 50.28876 36975 ft 504 kts 158°
2026-05-06 06:43 -9.65211 50.31703 36978 ft 504 kts 158°
2026-05-06 06:43 -9.71642 50.34527 36978 ft 503 kts 158°
2026-05-06 06:44 -9.78076 50.37353 36977 ft 504 kts 158°
2026-05-06 06:44 -9.84512 50.40182 36981 ft 504 kts 158°
2026-05-06 06:45 -9.90901 50.42994 36977 ft 504 kts 158°
2026-05-06 06:45 -9.97326 50.45820 36978 ft 504 kts 158°
2026-05-06 06:46 -10.03768 50.48655 36978 ft 504 kts 158°
2026-05-06 06:46 -10.10202 50.51485 36981 ft 503 kts 159°
2026-05-06 06:47 -10.16626 50.54310 36980 ft 503 kts 158°
2026-05-06 06:47 -10.23051 50.57139 36979 ft 503 kts 159°
2026-05-06 06:48 -10.29482 50.59973 36981 ft 503 kts 159°
2026-05-06 06:48 -10.35870 50.62788 36982 ft 503 kts 159°
2026-05-06 06:49 -10.42299 50.65622 36983 ft 503 kts 159°
2026-05-06 06:49 -10.48719 50.68455 36981 ft 503 kts 159°
2026-05-06 06:50 -10.55146 50.71293 36984 ft 503 kts 159°
2026-05-06 06:50 -10.61580 50.74133 36984 ft 503 kts 159°
2026-05-06 06:51 -10.68005 50.76971 36981 ft 503 kts 159°
2026-05-06 06:51 -10.74430 50.79811 36984 ft 503 kts 159°
2026-05-06 06:52 -10.80856 50.82652 36982 ft 503 kts 159°
2026-05-06 06:52 -10.87275 50.85492 36983 ft 504 kts 159°
2026-05-06 06:53 -10.93667 50.88321 36983 ft 504 kts 159°
2026-05-06 06:53 -11.00092 50.91166 36987 ft 504 kts 159°
2026-05-06 06:54 -11.06523 50.94015 36985 ft 504 kts 159°
2026-05-06 06:54 -11.12956 50.96866 36987 ft 504 kts 159°
2026-05-06 06:55 -11.19390 50.99719 36988 ft 504 kts 159°
2026-05-06 06:55 -11.25790 51.02559 36990 ft 504 kts 159°
2026-05-06 06:56 -11.32219 51.05413 36988 ft 504 kts 159°
2026-05-06 06:56 -11.38654 51.08270 36988 ft 504 kts 159°
2026-05-06 06:57 -11.45078 51.11125 36990 ft 504 kts 159°
2026-05-06 06:57 -11.51463 51.13962 36987 ft 504 kts 159°
2026-05-06 06:58 -11.57896 51.16824 36992 ft 504 kts 159°
2026-05-06 06:58 -11.64333 51.19688 36991 ft 504 kts 159°
2026-05-06 06:59 -11.70767 51.22553 36991 ft 504 kts 159°
2026-05-06 06:59 -11.77196 51.25416 36992 ft 504 kts 159°
2026-05-06 07:00 -11.83625 51.28281 36989 ft 504 kts 159°
2026-05-06 07:00 -11.90059 51.31150 36990 ft 504 kts 159°
2026-05-06 07:01 -11.96497 51.34022 36989 ft 504 kts 159°
2026-05-06 07:01 -12.02883 51.36873 36992 ft 505 kts 159°
2026-05-06 07:02 -12.09326 51.39750 36990 ft 505 kts 159°
2026-05-06 07:02 -12.15756 51.42625 36991 ft 505 kts 159°
2026-05-06 07:03 -12.22195 51.45504 36990 ft 505 kts 159°
2026-05-06 07:03 -12.28629 51.48382 36990 ft 505 kts 159°
2026-05-06 07:04 -12.35071 51.51265 36994 ft 505 kts 159°
2026-05-06 07:04 -12.41518 51.54153 36998 ft 505 kts 159°
2026-05-06 07:05 -12.47958 51.57039 36994 ft 505 kts 159°
2026-05-06 07:05 -12.54356 51.59908 36994 ft 505 kts 159°
2026-05-06 07:06 -12.60794 51.62796 36994 ft 505 kts 159°
2026-05-06 07:06 -12.67234 51.65686 36994 ft 506 kts 159°
2026-05-06 07:07 -12.73687 51.68584 36994 ft 506 kts 159°
2026-05-06 07:07 -12.80136 51.71482 36993 ft 506 kts 159°
2026-05-06 07:08 -12.86591 51.74385 36994 ft 506 kts 159°
2026-05-06 07:08 -12.93039 51.77286 36995 ft 506 kts 159°
2026-05-06 07:09 -12.99491 51.80190 36994 ft 506 kts 159°
2026-05-06 07:09 -13.05930 51.83090 36993 ft 506 kts 159°
2026-05-06 07:10 -13.12332 51.85975 36994 ft 505 kts 159°
2026-05-06 07:10 -13.18772 51.88878 37000 ft 505 kts 159°
2026-05-06 07:11 -13.25207 51.91781 36996 ft 505 kts 159°
2026-05-06 07:11 -13.31643 51.94686 36995 ft 505 kts 159°
2026-05-06 07:12 -13.38078 51.97593 37001 ft 505 kts 159°
2026-05-06 07:12 -13.44462 52.00480 36997 ft 504 kts 159°
2026-05-06 07:13 -13.50887 52.03389 36998 ft 504 kts 159°
2026-05-06 07:13 -13.57300 52.06288 36997 ft 504 kts 159°
2026-05-06 07:14 -13.63718 52.09191 37000 ft 504 kts 159°
2026-05-06 07:14 -13.70133 52.12097 37002 ft 503 kts 159°
2026-05-06 07:15 -13.76553 52.15007 36999 ft 503 kts 159°
2026-05-06 07:15 -13.82963 52.17915 36999 ft 503 kts 159°
2026-05-06 07:16 -13.89360 52.20818 36998 ft 503 kts 159°
2026-05-06 07:16 -13.95760 52.23724 37002 ft 503 kts 159°
2026-05-06 07:17 -14.02132 52.26619 37002 ft 502 kts 159°
2026-05-06 07:17 -14.08518 52.29523 37003 ft 502 kts 159°
2026-05-06 07:18 -14.14923 52.32437 37004 ft 502 kts 159°
2026-05-06 07:18 -14.21316 52.35347 37001 ft 501 kts 159°
2026-05-06 07:19 -14.27648 52.38232 37002 ft 501 kts 159°
2026-05-06 07:19 -14.34023 52.41137 37004 ft 500 kts 159°
2026-05-06 07:20 -14.40397 52.44044 37005 ft 500 kts 159°
2026-05-06 07:20 -14.46782 52.46958 37006 ft 500 kts 159°
2026-05-06 07:21 -14.53139 52.49861 37006 ft 500 kts 159°
2026-05-06 07:21 -14.59455 52.52747 37004 ft 499 kts 159°
2026-05-06 07:22 -14.65852 52.55672 37003 ft 499 kts 159°
2026-05-06 07:22 -14.72158 52.58557 37003 ft 499 kts 158°
2026-05-06 07:23 -14.78509 52.61465 37006 ft 499 kts 159°
2026-05-06 07:23 -14.84865 52.64376 37008 ft 499 kts 158°
2026-05-06 07:24 -14.91204 52.67282 37006 ft 499 kts 158°
2026-05-06 07:24 -14.97545 52.70190 37011 ft 498 kts 158°
2026-05-06 07:25 -15.02818 52.72611 37008 ft 498 kts 158°
2026-05-06 07:25 -15.09169 52.75527 37008 ft 498 kts 158°
2026-05-06 07:26 -15.15502 52.78438 37007 ft 498 kts 158°
2026-05-06 07:26 -15.21837 52.81351 37008 ft 498 kts 158°
2026-05-06 07:27 -15.28171 52.84265 37008 ft 498 kts 158°
2026-05-06 07:27 -15.34500 52.87179 37005 ft 498 kts 158°
2026-05-06 07:28 -15.40824 52.90093 37007 ft 497 kts 158°
2026-05-06 07:28 -15.50276 52.94452 37000 ft 497 kts 158°
2026-05-06 07:29 -15.56594 52.97367 37001 ft 497 kts 158°
2026-05-06 07:29 -15.62923 53.00290 37003 ft 497 kts 158°
2026-05-06 07:30 -15.69237 53.03208 37004 ft 496 kts 158°
2026-05-06 07:30 -15.75544 53.06125 37004 ft 496 kts 158°
2026-05-06 07:31 -15.81818 53.09029 37007 ft 496 kts 158°
2026-05-06 07:31 -15.88118 53.11946 37006 ft 496 kts 158°
2026-05-06 07:32 -15.94418 53.14865 37008 ft 496 kts 158°
2026-05-06 07:32 -16.00719 53.17788 37006 ft 496 kts 158°
2026-05-06 07:33 -16.07025 53.20714 37008 ft 495 kts 158°
2026-05-06 07:33 -16.13325 53.23640 37009 ft 495 kts 158°
2026-05-06 07:34 -16.19613 53.26561 37007 ft 495 kts 158°
2026-05-06 07:34 -16.23285 53.28269 37011 ft 495 kts 158°
2026-05-06 07:35 -16.29573 53.31194 37014 ft 495 kts 158°
2026-05-06 07:35 -16.35860 53.34121 37008 ft 495 kts 158°
2026-05-06 07:36 -16.42145 53.37050 37009 ft 494 kts 158°
2026-05-06 07:36 -16.48424 53.39977 37012 ft 494 kts 158°
2026-05-06 07:37 -16.54707 53.42908 37011 ft 494 kts 158°
2026-05-06 07:37 -16.60979 53.45836 37009 ft 494 kts 158°
2026-05-06 07:38 -16.67203 53.48744 37010 ft 493 kts 158°
2026-05-06 07:38 -16.73460 53.51670 37013 ft 492 kts 158°
2026-05-06 07:39 -16.80006 53.54733 37010 ft 492 kts 158°
2026-05-06 07:39 -16.86246 53.57655 37011 ft 491 kts 158°
2026-05-06 07:40 -16.92479 53.60574 37011 ft 490 kts 157°
2026-05-06 07:40 -16.98697 53.63490 37010 ft 490 kts 157°
2026-05-06 07:41 -17.04868 53.66389 37013 ft 489 kts 157°
2026-05-06 07:41 -17.11072 53.69303 37017 ft 488 kts 157°
2026-05-06 07:42 -17.17262 53.72213 37014 ft 488 kts 157°
2026-05-06 07:42 -17.23463 53.75127 37016 ft 488 kts 157°
2026-05-06 07:43 -17.29653 53.78040 37015 ft 487 kts 157°
2026-05-06 07:43 -17.35836 53.80951 37015 ft 487 kts 157°
2026-05-06 07:44 -17.41971 53.83843 37015 ft 487 kts 157°
2026-05-06 07:44 -17.48146 53.86757 37017 ft 486 kts 157°
2026-05-06 07:45 -17.54310 53.89668 37016 ft 486 kts 156°
2026-05-06 07:45 -17.60470 53.92577 37019 ft 485 kts 156°
2026-05-06 07:46 -17.66636 53.95492 37017 ft 485 kts 156°
2026-05-06 07:46 -17.72789 53.98403 37020 ft 485 kts 156°
2026-05-06 07:47 -17.78948 54.01320 37018 ft 485 kts 156°
2026-05-06 07:47 -17.85094 54.04232 37017 ft 484 kts 156°
2026-05-06 07:48 -17.91236 54.07145 37015 ft 484 kts 156°
2026-05-06 07:48 -17.97368 54.10055 37018 ft 484 kts 156°
2026-05-06 07:49 -18.03505 54.12969 37021 ft 484 kts 156°
2026-05-06 07:49 -18.09630 54.15881 37020 ft 483 kts 156°
2026-05-06 07:50 -18.15676 54.18742 37020 ft 483 kts 156°
2026-05-06 07:50 -18.21772 54.21608 37021 ft 483 kts 156°
2026-05-06 07:51 -18.27889 54.24487 37022 ft 482 kts 156°
2026-05-06 07:51 -18.34014 54.27377 37024 ft 482 kts 156°
2026-05-06 07:52 -18.40134 54.30268 37022 ft 482 kts 156°
2026-05-06 07:52 -18.46253 54.33161 37022 ft 482 kts 156°
2026-05-06 07:53 -18.52368 54.36055 37024 ft 482 kts 156°
2026-05-06 07:53 -18.58488 54.38953 37023 ft 482 kts 156°
2026-05-06 07:54 -18.64597 54.41861 37028 ft 482 kts 155°
2026-05-06 07:54 -18.70696 54.44793 37026 ft 482 kts 155°
2026-05-06 07:55 -18.76794 54.47727 37026 ft 482 kts 155°
2026-05-06 07:55 -18.82854 54.50643 37031 ft 482 kts 155°
2026-05-06 07:56 -18.88954 54.53579 37028 ft 482 kts 155°
2026-05-06 07:56 -18.95062 54.56521 37028 ft 482 kts 155°
2026-05-06 07:57 -19.01165 54.59462 37030 ft 481 kts 155°
2026-05-06 07:57 -19.07263 54.62405 37033 ft 482 kts 155°
2026-05-06 07:58 -19.13321 54.65330 37031 ft 482 kts 155°
2026-05-06 07:58 -19.19425 54.68280 37029 ft 482 kts 155°
2026-05-06 07:59 -19.25539 54.71236 37034 ft 482 kts 155°
2026-05-06 07:59 -19.31639 54.74189 37037 ft 482 kts 155°
2026-05-06 08:00 -19.37720 54.77135 37030 ft 482 kts 155°
2026-05-06 08:00 -19.43825 54.80094 37031 ft 483 kts 155°
2026-05-06 08:01 -19.48945 54.82579 37034 ft 483 kts 155°
2026-05-06 08:01 -19.55009 54.85523 37035 ft 483 kts 155°
2026-05-06 08:02 -19.61111 54.88488 37034 ft 483 kts 155°
2026-05-06 08:02 -19.67221 54.91460 37030 ft 483 kts 155°
2026-05-06 08:03 -19.73322 54.94430 37035 ft 482 kts 155°
2026-05-06 08:03 -19.79426 54.97403 37033 ft 482 kts 155°
2026-05-06 08:04 -19.85518 55.00374 37042 ft 482 kts 155°
2026-05-06 08:04 -19.91604 55.03344 37044 ft 481 kts 155°
2026-05-06 08:05 -19.97685 55.06346 37038 ft 481 kts 153°
2026-05-06 08:05 -20.03158 55.10413 37039 ft 481 kts 136°
2026-05-06 08:06 -20.07163 55.16064 37039 ft 483 kts 118°
2026-05-06 08:06 -20.09241 55.22857 37031 ft 486 kts 102°
2026-05-06 08:07 -20.10294 55.29928 37038 ft 488 kts 99°
2026-05-06 08:07 -20.11236 55.37088 37037 ft 488 kts 99°
2026-05-06 08:08 -20.12202 55.44232 37030 ft 488 kts 100°
2026-05-06 08:08 -20.13198 55.51372 37022 ft 488 kts 100°
2026-05-06 08:09 -20.14166 55.58523 37023 ft 488 kts 99°
2026-05-06 08:09 -20.15099 55.65679 37028 ft 488 kts 99°
2026-05-06 08:10 -20.16029 55.72799 36788 ft 478 kts 99°
2026-05-06 08:10 -20.16481 55.76264 36448 ft 470 kts 99°
2026-05-06 08:10 -20.16934 55.79725 35656 ft 474 kts 100°
2026-05-06 08:11 -20.17383 55.83165 34910 ft 476 kts 100°
2026-05-06 08:11 -20.17840 55.86670 34115 ft 479 kts 100°
2026-05-06 08:11 -20.18300 55.90198 33200 ft 483 kts 100°
2026-05-06 08:11 -20.18763 55.93748 32330 ft 485 kts 99°
2026-05-06 08:12 -20.19226 55.97314 31435 ft 488 kts 99°
2026-05-06 08:12 -20.19692 56.00905 30514 ft 491 kts 99°
2026-05-06 08:12 -20.19998 56.04539 29493 ft 495 kts 93°
2026-05-06 08:12 -20.20037 56.08195 28722 ft 492 kts 91°
2026-05-06 08:13 -20.20039 56.11828 28010 ft 487 kts 91°
2026-05-06 08:13 -20.20040 56.15415 27312 ft 483 kts 91°
2026-05-06 08:13 -20.20044 56.18981 26621 ft 480 kts 91°
2026-05-06 08:13 -20.20048 56.22524 25922 ft 476 kts 91°
2026-05-06 08:14 -20.20052 56.26036 25233 ft 473 kts 91°
2026-05-06 08:14 -20.20057 56.29530 24543 ft 470 kts 91°
2026-05-06 08:14 -20.20061 56.32996 23871 ft 467 kts 91°
2026-05-06 08:14 -20.20065 56.36454 23110 ft 465 kts 91°
2026-05-06 08:15 -20.20067 56.39877 22391 ft 460 kts 91°
2026-05-06 08:15 -20.20068 56.43261 21709 ft 455 kts 91°
2026-05-06 08:15 -20.20068 56.46563 21038 ft 450 kts 91°
2026-05-06 08:15 -20.20068 56.49878 20375 ft 445 kts 91°
2026-05-06 08:16 -20.20068 56.53158 19700 ft 441 kts 91°
2026-05-06 08:16 -20.20068 56.56407 19022 ft 437 kts 91°
2026-05-06 08:16 -20.20067 56.59634 18338 ft 434 kts 91°
2026-05-06 08:16 -20.20065 56.62838 17579 ft 430 kts 91°
2026-05-06 08:17 -20.20064 56.66005 16880 ft 425 kts 91°
2026-05-06 08:17 -20.20063 56.69132 16191 ft 420 kts 91°
2026-05-06 08:17 -20.20060 56.72227 15514 ft 415 kts 91°
2026-05-06 08:17 -20.20057 56.75288 14835 ft 411 kts 91°
2026-05-06 08:18 -20.20056 56.78306 14154 ft 407 kts 90°
2026-05-06 08:18 -20.20050 56.81312 13425 ft 403 kts 90°
2026-05-06 08:18 -20.20044 56.84264 12718 ft 397 kts 90°
2026-05-06 08:18 -20.20038 56.87186 12032 ft 392 kts 90°
2026-05-06 08:19 -20.20031 56.90075 11483 ft 384 kts 90°
2026-05-06 08:19 -20.20025 56.92808 11347 ft 365 kts 90°
2026-05-06 08:19 -20.20018 56.95445 11223 ft 347 kts 90°
2026-05-06 08:19 -20.20011 56.97955 11096 ft 331 kts 90°
2026-05-06 08:20 -20.20005 57.00355 10969 ft 317 kts 90°
2026-05-06 08:20 -20.19999 57.02650 10846 ft 303 kts 90°
2026-05-06 08:20 -20.19992 57.04847 10721 ft 291 kts 90°
2026-05-06 08:20 -20.19986 57.06966 10516 ft 283 kts 90°
2026-05-06 08:21 -20.19980 57.09054 10180 ft 281 kts 90°
2026-05-06 08:21 -20.19973 57.11139 9845 ft 283 kts 90°
2026-05-06 08:21 -20.19966 57.13275 9492 ft 291 kts 90°
2026-05-06 08:21 -20.19958 57.15432 9137 ft 291 kts 90°
2026-05-06 08:22 -20.19950 57.17573 8783 ft 288 kts 90°
2026-05-06 08:22 -20.19942 57.19696 8447 ft 285 kts 90°
2026-05-06 08:22 -20.19935 57.21768 8117 ft 283 kts 90°
2026-05-06 08:22 -20.19926 57.23853 7782 ft 281 kts 89°
2026-05-06 08:23 -20.19924 57.25923 7448 ft 278 kts 90°
2026-05-06 08:23 -20.20221 57.27966 7119 ft 277 kts 109°
2026-05-06 08:23 -20.21131 57.29743 6800 ft 275 kts 123°
2026-05-06 08:23 -20.22241 57.31402 6466 ft 275 kts 124°
2026-05-06 08:24 -20.23365 57.33048 6128 ft 274 kts 124°
2026-05-06 08:24 -20.24472 57.34685 5787 ft 271 kts 124°
2026-05-06 08:24 -20.25558 57.36302 5560 ft 264 kts 124°
2026-05-06 08:24 -20.26599 57.37860 5433 ft 253 kts 123°
2026-05-06 08:25 -20.27598 57.39361 5317 ft 243 kts 123°
2026-05-06 08:25 -20.28563 57.40794 5183 ft 233 kts 123°
2026-05-06 08:25 -20.29500 57.42167 5063 ft 224 kts 123°
2026-05-06 08:25 -20.30396 57.43484 4940 ft 215 kts 124°
2026-05-06 08:26 -20.31262 57.44739 4878 ft 208 kts 124°
2026-05-06 08:26 -20.32108 57.45969 4698 ft 204 kts 122°
2026-05-06 08:26 -20.32846 57.47217 4546 ft 195 kts 117°
2026-05-06 08:26 -20.33486 57.48493 4231 ft 195 kts 114°
2026-05-06 08:27 -20.34084 57.49755 4023 ft 189 kts 114°
2026-05-06 08:27 -20.34669 57.50982 3908 ft 176 kts 115°
2026-05-06 08:27 -20.35205 57.52090 3718 ft 166 kts 115°
2026-05-06 08:27 -20.35723 57.53158 3486 ft 158 kts 114°
2026-05-06 08:28 -20.36216 57.54184 3254 ft 152 kts 114°
2026-05-06 08:28 -20.36688 57.55165 3033 ft 147 kts 113°
2026-05-06 08:28 -20.37147 57.56125 2795 ft 143 kts 113°
2026-05-06 08:28 -20.37590 57.57046 2596 ft 137 kts 113°
2026-05-06 08:29 -20.38019 57.57944 2388 ft 135 kts 112°
2026-05-06 08:29 -20.38441 57.58831 2161 ft 132 kts 112°
2026-05-06 08:29 -20.38837 57.59693 1954 ft 127 kts 112°
2026-05-06 08:29 -20.39229 57.60528 1757 ft 126 kts 116°
2026-05-06 08:30 -20.39673 57.61350 1606 ft 130 kts 117°
2026-05-06 08:30 -20.40097 57.62203 1455 ft 131 kts 113°
2026-05-06 08:30 -20.40470 57.63046 1298 ft 131 kts 112°
2026-05-06 08:30 -20.40858 57.63875 1091 ft 131 kts 115°
2026-05-06 08:31 -20.41273 57.64718 874 ft 130 kts 115°
2026-05-06 08:31 -20.41679 57.65583 674 ft 131 kts 116°
2026-05-06 08:31 -20.42110 57.66447 452 ft 132 kts 112°
2026-05-06 08:31 -20.42508 57.67305 244 ft 127 kts 115°
2026-05-06 08:32 -20.42902 57.68119 201 ft 114 kts 117°
2026-05-06 08:32 -20.43207 57.68746 178 ft 82 kts 118°
2026-05-06 08:32 -20.43429 57.69191 152 ft 54 kts 116°
2026-05-06 08:32 -20.43556 57.69456 138 ft 26 kts 117°
2026-05-06 08:33 -20.43597 57.69542 124 ft 0 kts 117°
2026-05-06 08:33 -20.43599 57.69545 124 ft 2 kts 117°
2026-05-06 08:33 -20.43613 57.69564 130 ft 5 kts 137°
2026-05-06 08:33 -20.43658 57.69568 125 ft 9 kts 200°
2026-05-06 08:34 -20.43696 57.69519 127 ft 8 kts 251°
2026-05-06 08:34 -20.43694 57.69451 140 ft 3 kts 278°
2026-05-06 08:34 -20.43689 57.69421 143 ft 5 kts 281°
2026-05-06 08:35 -20.43680 57.69370 148 ft 8 kts 280°
2026-05-06 08:35 -20.43665 57.69301 155 ft 11 kts 287°
2026-05-06 08:35 -20.43629 57.69210 162 ft 13 kts 296°
2026-05-06 08:35 -20.43600 57.69148 167 ft 5 kts 296°
2026-05-06 08:36 -20.43595 57.69136 168 ft 0 kts 296°